Observation data for Adrian on 01/19/2019      Previous  Date  Next       Current Mesonet Observations  Soil Data  Daily Summary Page  Observations in Plain Language
KAD1 190600Z 35019KT M01/M03 A3013 RMK A01 T10101031  RH  086%=      5-min Rain = 0
KAD1 190601Z 35021KT M01/M03 A3013 RMK A01 T10101030  RH  086%=      5-min Rain = 0
KAD1 190602Z 35021KT M01/M03 A3013 RMK A01 T10111031  RH  086%=      5-min Rain = 0
KAD1 190603Z 35018G25KT M01/M03 A3013 RMK A01 T10111031  RH  086%=      5-min Rain = 0
KAD1 190604Z 35022KT M01/M03 A3013 RMK A01 T10111031  RH  086%=      5-min Rain = 0
KAD1 190605Z 35020KT M01/M03 A3013 RMK A01 T10111031  RH  086%=      5-min Rain = 0
KAD1 190606Z 35021KT M01/M03 A3013 RMK A01 T10111032  RH  086%=      5-min Rain = 0
KAD1 190607Z 35019KT M01/M03 A3014 RMK A01 T10101032  RH  085%=      5-min Rain = 0
KAD1 190608Z 36023KT M01/M03 A3014 RMK A01 T10111032  RH  085%=      5-min Rain = 0
KAD1 190609Z 35019KT M01/M03 A3014 RMK A01 T10101032  RH  085%=      5-min Rain = 0
KAD1 190610Z 35019G24KT M01/M03 A3014 RMK A01 T10101032  RH  085%=      5-min Rain = 0
KAD1 190611Z 35021G26KT M01/M03 A3014 RMK A01 T10101032  RH  086%=      5-min Rain = 0
KAD1 190612Z 00020KT M01/M03 A3014 RMK A01 T10111032  RH  085%=      5-min Rain = 0
KAD1 190613Z 35019KT M01/M03 A3014 RMK A01 T10111032  RH  086%=      5-min Rain = 0
KAD1 190614Z 35020KT M01/M03 A3014 RMK A01 T10111032  RH  086%=      5-min Rain = 0
KAD1 190615Z 35020KT M01/M03 A3014 RMK A01 T10111032  RH  086%=      5-min Rain = 0
KAD1 190616Z 35020KT M01/M03 A3014 RMK A01 T10121032  RH  086%=      5-min Rain = 0
KAD1 190617Z 36018G24KT M01/M03 A3014 RMK A01 T10121033  RH  086%=      5-min Rain = 0
KAD1 190618Z 36020G25KT M01/M03 A3014 RMK A01 T10121032  RH  086%=      5-min Rain = 0
KAD1 190619Z 36019G24KT M01/M03 A3014 RMK A01 T10121033  RH  086%=      5-min Rain = 0
KAD1 190620Z 35018G24KT M01/M03 A3014 RMK A01 T10121032  RH  086%=      5-min Rain = 0
KAD1 190621Z 36021G26KT M01/M03 A3014 RMK A01 T10121033  RH  086%=      5-min Rain = 0
KAD1 190622Z 35018KT M01/M03 A3014 RMK A01 T10121033  RH  086%=      5-min Rain = 0
KAD1 190623Z 36016KT M01/M03 A3014 RMK A01 T10121033  RH  086%=      5-min Rain = 0
KAD1 190624Z 35017KT M01/M03 A3014 RMK A01 T10121032  RH  086%=      5-min Rain = 0
KAD1 190625Z 35017KT M01/M03 A3014 RMK A01 T10121032  RH  086%=      5-min Rain = 0
KAD1 190626Z 35015KT M01/M03 A3014 RMK A01 T10121032  RH  087%=      5-min Rain = 0
KAD1 190627Z 35018KT M01/M03 A3014 RMK A01 T10131032  RH  087%=      5-min Rain = 0
KAD1 190628Z 35014KT M01/M03 A3014 RMK A01 T10131032  RH  087%=      5-min Rain = 0
KAD1 190629Z 35014KT M01/M03 A3014 RMK A01 T10131032  RH  087%=      5-min Rain = 0
KAD1 190630Z 34015KT M01/M03 A3015 RMK A01 T10131031  RH  088%=      5-min Rain = 0
KAD1 190631Z 34017KT M01/M03 A3015 RMK A01 T10131031  RH  088%=      5-min Rain = 0
KAD1 190632Z 35016KT M01/M03 A3015 RMK A01 T10131031  RH  088%=      5-min Rain = 0
KAD1 190633Z 34018KT M01/M03 A3015 RMK A01 T10141032  RH  087%=      5-min Rain = 0
KAD1 190634Z 34017KT M01/M03 A3015 RMK A01 T10131032  RH  087%=      5-min Rain = 0
KAD1 190635Z 35017KT M01/M03 A3015 RMK A01 T10131032  RH  087%=      5-min Rain = 0
KAD1 190636Z 34017KT M01/M03 A3015 RMK A01 T10131032  RH  087%=      5-min Rain = 0
KAD1 190637Z 34015KT M01/M03 A3015 RMK A01 T10131032  RH  087%=      5-min Rain = 0
KAD1 190638Z 35013KT M01/M03 A3015 RMK A01 T10141032  RH  087%=      5-min Rain = 0
KAD1 190639Z 35016KT M01/M03 A3015 RMK A01 T10141032  RH  088%=      5-min Rain = 0
KAD1 190640Z 34016KT M01/M03 A3015 RMK A01 T10141032  RH  087%=      5-min Rain = 0
KAD1 190641Z 35016KT M01/M03 A3015 RMK A01 T10141032  RH  087%=      5-min Rain = 0
KAD1 190642Z 35014KT M01/M03 A3015 RMK A01 T10141032  RH  087%=      5-min Rain = 0
KAD1 190643Z 35015KT M01/M03 A3015 RMK A01 T10141032  RH  087%=      5-min Rain = 0
KAD1 190644Z 35015KT M02/M03 A3015 RMK A01 T10151032  RH  088%=      5-min Rain = 0
KAD1 190645Z 35014KT M01/M03 A3015 RMK A01 T10141032  RH  088%=      5-min Rain = 0
KAD1 190646Z 35013G19KT M01/M03 A3015 RMK A01 T10141032  RH  088%=      5-min Rain = 0
KAD1 190647Z 34016G21KT M01/M03 A3015 RMK A01 T10141032  RH  088%=      5-min Rain = 0
KAD1 190648Z 35015KT M01/M03 A3015 RMK A01 T10141032  RH  088%=      5-min Rain = 0
KAD1 190649Z 34014KT M01/M03 A3015 RMK A01 T10141032  RH  088%=      5-min Rain = 0
KAD1 190650Z 34015KT M01/M03 A3015 RMK A01 T10141032  RH  088%=      5-min Rain = 0
KAD1 190651Z 34015KT M01/M03 A3015 RMK A01 T10141032  RH  088%=      5-min Rain = 0
KAD1 190652Z 34014KT M01/M03 A3015 RMK A01 T10141032  RH  088%=      5-min Rain = 0
KAD1 190653Z 34014KT M01/M03 A3015 RMK A01 T10141032  RH  088%=      5-min Rain = 0
KAD1 190654Z 34013KT M01/M03 A3015 RMK A01 T10141032  RH  088%=      5-min Rain = 0
KAD1 190655Z 34015KT M02/M03 A3015 RMK A01 T10151032  RH  088%=      5-min Rain = 0
KAD1 190656Z 34014KT M02/M03 A3015 RMK A01 T10151032  RH  088%=      5-min Rain = 0
KAD1 190657Z 34014KT M02/M03 A3015 RMK A01 T10151033  RH  088%=      5-min Rain = 0
KAD1 190658Z 34012KT M02/M03 A3015 RMK A01 T10151032  RH  088%=      5-min Rain = 0
KAD1 190659Z 34014KT M02/M03 A3015 RMK A01 T10151032  RH  088%=      5-min Rain = 0
KAD1 190700Z 34013KT M02/M03 A3015 RMK A01 T10151032  RH  088%=      5-min Rain = 0
KAD1 190701Z 34013KT M02/M03 A3015 RMK A01 T10151032  RH  088%=      5-min Rain = 0
KAD1 190702Z 34014KT M02/M03 A3015 RMK A01 T10151032  RH  088%=      5-min Rain = 0
KAD1 190703Z 34014KT M02/M03 A3015 RMK A01 T10151032  RH  088%=      5-min Rain = 0
KAD1 190704Z 35015KT M02/M03 A3015 RMK A01 T10151032  RH  088%=      5-min Rain = 0
KAD1 190705Z 34014KT M02/M03 A3015 RMK A01 T10151032  RH  088%=      5-min Rain = 0
KAD1 190706Z 34015KT M02/M03 A3015 RMK A01 T10151032  RH  088%=      5-min Rain = 0
KAD1 190707Z 34015G20KT M02/M03 A3015 RMK A01 T10151032  RH  088%=      5-min Rain = 0
KAD1 190708Z 35016KT M02/M03 A3015 RMK A01 T10151033  RH  088%=      5-min Rain = 0
KAD1 190709Z 34015KT M01/M03 A3015 RMK A01 T10141033  RH  087%=      5-min Rain = 0
KAD1 190710Z 34015KT M02/M03 A3015 RMK A01 T10151033  RH  087%=      5-min Rain = 0
KAD1 190711Z 34015KT M02/M03 A3015 RMK A01 T10151033  RH  087%=      5-min Rain = 0
KAD1 190712Z 34016KT M02/M03 A3015 RMK A01 T10151033  RH  088%=      5-min Rain = 0
KAD1 190713Z 34016KT M02/M03 A3015 RMK A01 T10151033  RH  088%=      5-min Rain = 0
KAD1 190714Z 34016KT M02/M03 A3015 RMK A01 T10151033  RH  088%=      5-min Rain = 0
KAD1 190715Z 34014KT M02/M03 A3015 RMK A01 T10151033  RH  088%=      5-min Rain = 0
KAD1 190716Z 34014KT M02/M03 A3015 RMK A01 T10151033  RH  088%=      5-min Rain = 0
KAD1 190717Z 34017KT M02/M03 A3015 RMK A01 T10151033  RH  088%=      5-min Rain = 0
KAD1 190718Z 34016KT M02/M03 A3015 RMK A01 T10151033  RH  087%=      5-min Rain = 0
KAD1 190719Z 34016KT M02/M03 A3016 RMK A01 T10151034  RH  087%=      5-min Rain = 0
KAD1 190720Z 35016KT M02/M03 A3015 RMK A01 T10151033  RH  087%=      5-min Rain = 0
KAD1 190721Z 34015KT M02/M03 A3016 RMK A01 T10151033  RH  087%=      5-min Rain = 0
KAD1 190722Z 34016KT M02/M03 A3015 RMK A01 T10151034  RH  087%=      5-min Rain = 0
KAD1 190723Z 34015KT M02/M03 A3015 RMK A01 T10151034  RH  087%=      5-min Rain = 0
KAD1 190724Z 34013KT M02/M03 A3015 RMK A01 T10151034  RH  087%=      5-min Rain = 0
KAD1 190725Z 34014KT M02/M03 A3015 RMK A01 T10161033  RH  088%=      5-min Rain = 0
KAD1 190726Z 34015KT M02/M03 A3015 RMK A01 T10161033  RH  088%=      5-min Rain = 0
KAD1 190727Z 34015KT M02/M03 A3015 RMK A01 T10161033  RH  088%=      5-min Rain = 0
KAD1 190728Z 34014KT M02/M03 A3015 RMK A01 T10161034  RH  088%=      5-min Rain = 0
KAD1 190729Z 34014KT M02/M03 A3015 RMK A01 T10161034  RH  088%=      5-min Rain = 0
KAD1 190730Z 34013KT M02/M03 A3015 RMK A01 T10161034  RH  087%=      5-min Rain = 0
KAD1 190731Z 34013KT M02/M03 A3015 RMK A01 T10161034  RH  088%=      5-min Rain = 0
KAD1 190732Z 34013KT M02/M03 A3016 RMK A01 T10161034  RH  088%=      5-min Rain = 0
KAD1 190733Z 34013KT M02/M03 A3016 RMK A01 T10161033  RH  088%=      5-min Rain = 0
KAD1 190734Z 34012KT M02/M03 A3015 RMK A01 T10161033  RH  088%=      5-min Rain = 0
KAD1 190735Z 33012KT M02/M03 A3016 RMK A01 T10161033  RH  088%=      5-min Rain = 0
KAD1 190736Z 34012KT M02/M03 A3016 RMK A01 T10161033  RH  088%=      5-min Rain = 0
KAD1 190737Z 34012KT M02/M03 A3016 RMK A01 T10171033  RH  088%=      5-min Rain = 0
KAD1 190738Z 34011KT M02/M03 A3016 RMK A01 T10171033  RH  089%=      5-min Rain = 0
KAD1 190739Z 34011KT M02/M03 A3016 RMK A01 T10171033  RH  089%=      5-min Rain = 0
KAD1 190740Z 34012KT M02/M03 A3016 RMK A01 T10171033  RH  089%=      5-min Rain = 0
KAD1 190741Z 34013KT M02/M03 A3016 RMK A01 T10181033  RH  089%=      5-min Rain = 0
KAD1 190742Z 34012KT M02/M03 A3016 RMK A01 T10171033  RH  089%=      5-min Rain = 0
KAD1 190743Z 33012KT M02/M03 A3016 RMK A01 T10181034  RH  089%=      5-min Rain = 0
KAD1 190744Z 33013KT M02/M03 A3016 RMK A01 T10171034  RH  089%=      5-min Rain = 0
KAD1 190745Z 33014KT M02/M03 A3016 RMK A01 T10181034  RH  089%=      5-min Rain = 0
KAD1 190746Z 33011KT M02/M03 A3016 RMK A01 T10171034  RH  088%=      5-min Rain = 0
KAD1 190747Z 33012KT M02/M03 A3016 RMK A01 T10181034  RH  088%=      5-min Rain = 0
KAD1 190748Z 34010KT M02/M03 A3016 RMK A01 T10181034  RH  089%=      5-min Rain = 0
KAD1 190749Z 34011KT M02/M03 A3016 RMK A01 T10181034  RH  089%=      5-min Rain = 0
KAD1 190750Z 34011KT M02/M03 A3016 RMK A01 T10191034  RH  089%=      5-min Rain = 0
KAD1 190751Z 34011KT M02/M03 A3016 RMK A01 T10191034  RH  089%=      5-min Rain = 0
KAD1 190752Z 34010KT M02/M03 A3016 RMK A01 T10191034  RH  089%=      5-min Rain = 0
KAD1 190753Z 34011KT M02/M03 A3016 RMK A01 T10181034  RH  089%=      5-min Rain = 0
KAD1 190754Z 34011KT M02/M03 A3016 RMK A01 T10181034  RH  089%=      5-min Rain = 0
KAD1 190755Z 33012KT M02/M03 A3016 RMK A01 T10181034  RH  089%=      5-min Rain = 0
KAD1 190756Z 34012KT M02/M03 A3016 RMK A01 T10171034  RH  088%=      5-min Rain = 0
KAD1 190757Z 33011KT M02/M03 A3016 RMK A01 T10161034  RH  088%=      5-min Rain = 0
KAD1 190758Z 33011KT M02/M03 A3016 RMK A01 T10161034  RH  088%=      5-min Rain = 0
KAD1 190759Z 33011KT M02/M03 A3016 RMK A01 T10161034  RH  088%=      5-min Rain = 0
KAD1 190800Z 33010KT M02/M03 A3016 RMK A01 T10171034  RH  088%=      5-min Rain = 0
KAD1 190801Z 33011KT M02/M03 A3016 RMK A01 T10171034  RH  088%=      5-min Rain = 0
KAD1 190802Z 33010KT M02/M03 A3016 RMK A01 T10171034  RH  088%=      5-min Rain = 0
KAD1 190803Z 33011KT M02/M03 A3016 RMK A01 T10171034  RH  088%=      5-min Rain = 0
KAD1 190804Z 33011KT M02/M04 A3016 RMK A01 T10181035  RH  088%=      5-min Rain = 0
KAD1 190805Z 33012KT M02/M03 A3016 RMK A01 T10181034  RH  089%=      5-min Rain = 0
KAD1 190806Z 33011KT M02/M03 A3016 RMK A01 T10181034  RH  089%=      5-min Rain = 0
KAD1 190807Z 33011KT M02/M03 A3016 RMK A01 T10181034  RH  089%=      5-min Rain = 0
KAD1 190808Z 33012KT M02/M03 A3016 RMK A01 T10181034  RH  089%=      5-min Rain = 0
KAD1 190809Z 33011KT M02/M03 A3016 RMK A01 T10181034  RH  089%=      5-min Rain = 0
KAD1 190810Z 33011KT M02/M03 A3016 RMK A01 T10181034  RH  089%=      5-min Rain = 0
KAD1 190811Z 33009KT M02/M03 A3016 RMK A01 T10181034  RH  089%=      5-min Rain = 0
KAD1 190812Z 33010KT M02/M03 A3016 RMK A01 T10181034  RH  089%=      5-min Rain = 0
KAD1 190813Z 33010KT M02/M04 A3016 RMK A01 T10191035  RH  089%=      5-min Rain = 0
KAD1 190814Z 33010KT M02/M04 A3016 RMK A01 T10191035  RH  089%=      5-min Rain = 0
KAD1 190815Z 33011KT M02/M04 A3016 RMK A01 T10201035  RH  090%=      5-min Rain = 0
KAD1 190816Z 32009KT M02/M04 A3016 RMK A01 T10201035  RH  090%=      5-min Rain = 0
KAD1 190817Z 32009KT M02/M04 A3016 RMK A01 T10201035  RH  090%=      5-min Rain = 0
KAD1 190818Z 32009KT M02/M04 A3016 RMK A01 T10201035  RH  090%=      5-min Rain = 0
KAD1 190819Z 32010KT M02/M04 A3016 RMK A01 T10211035  RH  090%=      5-min Rain = 0
KAD1 190820Z 33009KT M02/M04 A3016 RMK A01 T10211035  RH  090%=      5-min Rain = 0
KAD1 190821Z 33010KT M02/M04 A3016 RMK A01 T10211035  RH  090%=      5-min Rain = 0
KAD1 190822Z 33010KT M02/M04 A3016 RMK A01 T10211035  RH  090%=      5-min Rain = 0
KAD1 190823Z 33010KT M02/M04 A3016 RMK A01 T10201035  RH  090%=      5-min Rain = 0
KAD1 190824Z 32009KT M02/M04 A3016 RMK A01 T10211035  RH  090%=      5-min Rain = 0
KAD1 190825Z 32009KT M02/M04 A3016 RMK A01 T10201035  RH  090%=      5-min Rain = 0
KAD1 190826Z 32009KT M02/M04 A3016 RMK A01 T10211035  RH  090%=      5-min Rain = 0
KAD1 190827Z 32009KT M02/M04 A3016 RMK A01 T10211035  RH  090%=      5-min Rain = 0
KAD1 190828Z 32009KT M02/M04 A3016 RMK A01 T10211035  RH  090%=      5-min Rain = 0
KAD1 190829Z 32009KT M02/M04 A3016 RMK A01 T10211035  RH  090%=      5-min Rain = 0
KAD1 190830Z 32009KT M02/M04 A3016 RMK A01 T10211035  RH  090%=      5-min Rain = 0
KAD1 190831Z 33009KT M02/M04 A3016 RMK A01 T10211035  RH  090%=      5-min Rain = 0
KAD1 190832Z 32009KT M02/M04 A3016 RMK A01 T10211035  RH  090%=      5-min Rain = 0
KAD1 190833Z 32009KT M02/M04 A3016 RMK A01 T10211035  RH  090%=      5-min Rain = 0
KAD1 190834Z 32009KT M02/M04 A3016 RMK A01 T10201035  RH  090%=      5-min Rain = 0
KAD1 190835Z 32010KT M02/M04 A3016 RMK A01 T10201035  RH  090%=      5-min Rain = 0
KAD1 190836Z 32009KT M02/M04 A3016 RMK A01 T10201035  RH  090%=      5-min Rain = 0
KAD1 190837Z 32008KT M02/M03 A3016 RMK A01 T10191034  RH  090%=      5-min Rain = 0
KAD1 190838Z 32008KT M02/M04 A3016 RMK A01 T10201035  RH  089%=      5-min Rain = 0
KAD1 190839Z 32008KT M02/M04 A3016 RMK A01 T10201035  RH  089%=      5-min Rain = 0
KAD1 190840Z 32009KT M02/M04 A3016 RMK A01 T10201036  RH  089%=      5-min Rain = 0
KAD1 190841Z 32008KT M02/M04 A3016 RMK A01 T10201035  RH  089%=      5-min Rain = 0
KAD1 190842Z 32008KT M02/M04 A3016 RMK A01 T10201035  RH  089%=      5-min Rain = 0
KAD1 190843Z 32008KT M02/M04 A3016 RMK A01 T10211036  RH  089%=      5-min Rain = 0
KAD1 190844Z 32008KT M02/M04 A3016 RMK A01 T10211036  RH  090%=      5-min Rain = 0
KAD1 190845Z 32008KT M02/M04 A3016 RMK A01 T10211036  RH  090%=      5-min Rain = 0
KAD1 190846Z 32009KT M02/M04 A3016 RMK A01 T10211036  RH  090%=      5-min Rain = 0
KAD1 190847Z 31010KT M02/M04 A3016 RMK A01 T10211035  RH  090%=      5-min Rain = 0
KAD1 190848Z 31011KT M02/M04 A3016 RMK A01 T10201035  RH  090%=      5-min Rain = 0
KAD1 190849Z 31011KT M02/M03 A3016 RMK A01 T10191034  RH  089%=      5-min Rain = 0
KAD1 190850Z 31009KT M02/M03 A3016 RMK A01 T10171034  RH  088%=      5-min Rain = 0
KAD1 190851Z 31009KT M02/M04 A3016 RMK A01 T10171035  RH  088%=      5-min Rain = 0
KAD1 190852Z 32008KT M02/M03 A3017 RMK A01 T10171034  RH  088%=      5-min Rain = 0
KAD1 190853Z 32008KT M02/M04 A3017 RMK A01 T10171035  RH  088%=      5-min Rain = 0
KAD1 190854Z 32010KT M02/M04 A3017 RMK A01 T10171035  RH  088%=      5-min Rain = 0
KAD1 190855Z 31013KT M02/M03 A3016 RMK A01 T10171034  RH  088%=      5-min Rain = 0
KAD1 190856Z 32011KT M01/M03 A3017 RMK A01 T10141032  RH  087%=      5-min Rain = 0
KAD1 190857Z 32010KT M01/M03 A3017 RMK A01 T10121032  RH  086%=      5-min Rain = 0
KAD1 190858Z 32011KT M01/M03 A3017 RMK A01 T10131033  RH  086%=      5-min Rain = 0
KAD1 190859Z 31012KT M01/M03 A3017 RMK A01 T10121032  RH  086%=      5-min Rain = 0
KAD1 190900Z 31012KT M01/M03 A3017 RMK A01 T10131033  RH  086%=      5-min Rain = 0
KAD1 190901Z 32012KT M01/M03 A3017 RMK A01 T10131033  RH  087%=      5-min Rain = 0
KAD1 190902Z 32012KT M01/M03 A3017 RMK A01 T10141033  RH  087%=      5-min Rain = 0
KAD1 190903Z 32012KT M01/M03 A3017 RMK A01 T10141032  RH  087%=      5-min Rain = 0
KAD1 190904Z 32012KT M01/M03 A3017 RMK A01 T10141033  RH  087%=      5-min Rain = 0
KAD1 190905Z 32010KT M01/M03 A3017 RMK A01 T10141033  RH  087%=      5-min Rain = 0
KAD1 190906Z 32010KT M02/M03 A3017 RMK A01 T10151034  RH  087%=      5-min Rain = 0
KAD1 190907Z 32011KT M02/M03 A3017 RMK A01 T10161033  RH  088%=      5-min Rain = 0
KAD1 190908Z 32011KT M02/M03 A3017 RMK A01 T10161033  RH  088%=      5-min Rain = 0
KAD1 190909Z 32011KT M02/M03 A3017 RMK A01 T10161033  RH  088%=      5-min Rain = 0
KAD1 190910Z 31009KT M02/M03 A3017 RMK A01 T10161033  RH  088%=      5-min Rain = 0
KAD1 190911Z 31011KT M02/M03 A3017 RMK A01 T10161033  RH  088%=      5-min Rain = 0
KAD1 190912Z 32011KT M02/M03 A3017 RMK A01 T10161033  RH  088%=      5-min Rain = 0
KAD1 190913Z 32010KT M02/M03 A3017 RMK A01 T10151032  RH  088%=      5-min Rain = 0
KAD1 190914Z 32010KT M02/M03 A3017 RMK A01 T10151033  RH  087%=      5-min Rain = 0
KAD1 190915Z 32011KT M01/M03 A3017 RMK A01 T10141033  RH  087%=      5-min Rain = 0
KAD1 190916Z 32011KT M01/M03 A3017 RMK A01 T10141033  RH  087%=      5-min Rain = 0
KAD1 190917Z 32011KT M01/M03 A3017 RMK A01 T10141033  RH  087%=      5-min Rain = 0
KAD1 190918Z 32011KT M01/M03 A3017 RMK A01 T10141032  RH  087%=      5-min Rain = 0
KAD1 190919Z 32011KT M01/M03 A3017 RMK A01 T10131032  RH  087%=      5-min Rain = 0
KAD1 190920Z 32010KT M01/M03 A3017 RMK A01 T10121032  RH  087%=      5-min Rain = 0
KAD1 190921Z 32011KT M01/M03 A3017 RMK A01 T10121032  RH  086%=      5-min Rain = 0
KAD1 190922Z 33010KT M01/M03 A3017 RMK A01 T10111032  RH  086%=      5-min Rain = 0
KAD1 190923Z 33011KT M01/M03 A3017 RMK A01 T10111031  RH  086%=      5-min Rain = 0
KAD1 190924Z 32011KT M01/M03 A3017 RMK A01 T10101031  RH  086%=      5-min Rain = 0
KAD1 190925Z 32012G17KT M01/M03 A3017 RMK A01 T10101031  RH  085%=      5-min Rain = 0
KAD1 190926Z 32011KT M01/M03 A3017 RMK A01 T10091031  RH  085%=      5-min Rain = 0
KAD1 190927Z 32011KT M01/M03 A3018 RMK A01 T10081031  RH  084%=      5-min Rain = 0
KAD1 190928Z 32012KT M01/M03 A3018 RMK A01 T10081031  RH  084%=      5-min Rain = 0
KAD1 190929Z 32012KT M01/M03 A3018 RMK A01 T10081031  RH  084%=      5-min Rain = 0
KAD1 190930Z 32011KT M01/M03 A3018 RMK A01 T10081032  RH  084%=      5-min Rain = 0
KAD1 190931Z 32012KT M01/M03 A3018 RMK A01 T10081032  RH  084%=      5-min Rain = 0
KAD1 190932Z 33013KT M01/M03 A3018 RMK A01 T10081031  RH  084%=      5-min Rain = 0
KAD1 190933Z 32014KT M01/M03 A3018 RMK A01 T10081032  RH  084%=      5-min Rain = 0
KAD1 190934Z 33014KT M01/M03 A3018 RMK A01 T10081032  RH  083%=      5-min Rain = 0
KAD1 190935Z 32014KT M01/M03 A3018 RMK A01 T10071032  RH  083%=      5-min Rain = 0
KAD1 190936Z 33014KT M01/M03 A3018 RMK A01 T10071033  RH  083%=      5-min Rain = 0
KAD1 190937Z 33015KT M01/M03 A3018 RMK A01 T10081033  RH  083%=      5-min Rain = 0
KAD1 190938Z 33012KT M01/M03 A3018 RMK A01 T10081033  RH  083%=      5-min Rain = 0
KAD1 190939Z 33014KT M01/M03 A3018 RMK A01 T10091033  RH  083%=      5-min Rain = 0
KAD1 190940Z 33013KT M01/M03 A3018 RMK A01 T10091034  RH  084%=      5-min Rain = 0
KAD1 190941Z 33011G16KT M01/M03 A3018 RMK A01 T10101034  RH  084%=      5-min Rain = 0
KAD1 190942Z 33011KT M01/M03 A3018 RMK A01 T10111034  RH  084%=      5-min Rain = 0
KAD1 190943Z 33012KT M01/M03 A3018 RMK A01 T10121034  RH  085%=      5-min Rain = 0
KAD1 190944Z 33012KT M01/M03 A3018 RMK A01 T10121034  RH  085%=      5-min Rain = 0
KAD1 190945Z 33013KT M01/M03 A3018 RMK A01 T10131034  RH  086%=      5-min Rain = 0
KAD1 190946Z 33013KT M01/M03 A3019 RMK A01 T10131034  RH  086%=      5-min Rain = 0
KAD1 190947Z 33013KT M01/M03 A3019 RMK A01 T10131034  RH  086%=      5-min Rain = 0
KAD1 190948Z 32011KT M01/M03 A3019 RMK A01 T10141034  RH  086%=      5-min Rain = 0
KAD1 190949Z 32011KT M01/M03 A3019 RMK A01 T10141034  RH  086%=      5-min Rain = 0
KAD1 190950Z 33013KT M01/M03 A3019 RMK A01 T10141034  RH  087%=      5-min Rain = 0
KAD1 190951Z 32014KT M01/M03 A3019 RMK A01 T10131033  RH  086%=      5-min Rain = 0
KAD1 190952Z 33012KT M01/M03 A3019 RMK A01 T10121033  RH  086%=      5-min Rain = 0
KAD1 190953Z 32012KT M01/M03 A3019 RMK A01 T10121033  RH  086%=      5-min Rain = 0
KAD1 190954Z 33013KT M01/M03 A3019 RMK A01 T10121033  RH  086%=      5-min Rain = 0
KAD1 190955Z 33013KT M01/M03 A3019 RMK A01 T10131034  RH  085%=      5-min Rain = 0
KAD1 190956Z 33011KT M01/M03 A3019 RMK A01 T10121034  RH  085%=      5-min Rain = 0
KAD1 190957Z 33011KT M01/M03 A3019 RMK A01 T10131034  RH  085%=      5-min Rain = 0
KAD1 190958Z 33012KT M01/M03 A3019 RMK A01 T10131034  RH  086%=      5-min Rain = 0
KAD1 190959Z 33012KT M01/M03 A3019 RMK A01 T10131034  RH  086%=      5-min Rain = 0
KAD1 191000Z 33011KT M01/M03 A3019 RMK A01 T10131034  RH  086%=      5-min Rain = 0
KAD1 191001Z 33012KT M01/M03 A3019 RMK A01 T10131034  RH  086%=      5-min Rain = 0
KAD1 191002Z 33011KT M01/M03 A3019 RMK A01 T10131034  RH  086%=      5-min Rain = 0
KAD1 191003Z 33011KT M01/M04 A3019 RMK A01 T10141035  RH  086%=      5-min Rain = 0
KAD1 191004Z 34011KT M01/M04 A3019 RMK A01 T10141035  RH  086%=      5-min Rain = 0
KAD1 191005Z 34010KT M01/M04 A3019 RMK A01 T10141035  RH  086%=      5-min Rain = 0
KAD1 191006Z 33011KT M01/M04 A3019 RMK A01 T10141035  RH  086%=      5-min Rain = 0
KAD1 191007Z 34011KT M01/M04 A3019 RMK A01 T10141035  RH  086%=      5-min Rain = 0
KAD1 191008Z 34012KT M01/M04 A3019 RMK A01 T10141035  RH  086%=      5-min Rain = 0
KAD1 191009Z 34012KT M01/M04 A3019 RMK A01 T10141035  RH  085%=      5-min Rain = 0
KAD1 191010Z 33011KT M01/M04 A3019 RMK A01 T10131035  RH  085%=      5-min Rain = 0
KAD1 191011Z 34011KT M01/M04 A3019 RMK A01 T10131036  RH  085%=      5-min Rain = 0
KAD1 191012Z 34012KT M01/M04 A3019 RMK A01 T10141036  RH  085%=      5-min Rain = 0
KAD1 191013Z 34012G18KT M01/M04 A3019 RMK A01 T10141036  RH  085%=      5-min Rain = 0
KAD1 191014Z 33016KT M01/M04 A3019 RMK A01 T10121035  RH  084%=      5-min Rain = 0
KAD1 191015Z 33015KT M01/M04 A3019 RMK A01 T10091035  RH  083%=      5-min Rain = 0
KAD1 191016Z 34014KT M01/M04 A3019 RMK A01 T10081035  RH  082%=      5-min Rain = 0
KAD1 191017Z 33013KT M01/M04 A3019 RMK A01 T10081036  RH  082%=      5-min Rain = 0
KAD1 191018Z 33013KT M01/M04 A3019 RMK A01 T10091036  RH  082%=      5-min Rain = 0
KAD1 191019Z 33013KT M01/M04 A3019 RMK A01 T10101036  RH  082%=      5-min Rain = 0
KAD1 191020Z 33012KT M01/M04 A3019 RMK A01 T10101036  RH  083%=      5-min Rain = 0
KAD1 191021Z 33013KT M01/M04 A302 RMK A01 T10111037  RH  083%=      5-min Rain = 0
KAD1 191022Z 33012KT M01/M04 A302 RMK A01 T10121036  RH  083%=      5-min Rain = 0
KAD1 191023Z 33014KT M01/M04 A302 RMK A01 T10121037  RH  084%=      5-min Rain = 0
KAD1 191024Z 33013KT M01/M04 A302 RMK A01 T10131037  RH  084%=      5-min Rain = 0
KAD1 191025Z 33012KT M01/M04 A302 RMK A01 T10131036  RH  084%=      5-min Rain = 0
KAD1 191026Z 33013KT M01/M04 A302 RMK A01 T10131036  RH  084%=      5-min Rain = 0
KAD1 191027Z 33012KT M01/M04 A302 RMK A01 T10131036  RH  084%=      5-min Rain = 0
KAD1 191028Z 33012KT M01/M04 A302 RMK A01 T10121036  RH  084%=      5-min Rain = 0
KAD1 191029Z 33012KT M01/M04 A302 RMK A01 T10131036  RH  084%=      5-min Rain = 0
KAD1 191030Z 33013KT M01/M04 A302 RMK A01 T10121036  RH  084%=      5-min Rain = 0
KAD1 191031Z 34012KT M01/M04 A302 RMK A01 T10131036  RH  084%=      5-min Rain = 0
KAD1 191032Z 33011KT M01/M04 A302 RMK A01 T10131037  RH  084%=      5-min Rain = 0
KAD1 191033Z 33012KT M01/M04 A302 RMK A01 T10141036  RH  085%=      5-min Rain = 0
KAD1 191034Z 33012KT M01/M04 A302 RMK A01 T10141036  RH  085%=      5-min Rain = 0
KAD1 191035Z 33012KT M02/M04 A302 RMK A01 T10151036  RH  085%=      5-min Rain = 0
KAD1 191036Z 33011KT M02/M04 A302 RMK A01 T10151036  RH  085%=      5-min Rain = 0
KAD1 191037Z 33010KT M02/M04 A302 RMK A01 T10151036  RH  085%=      5-min Rain = 0
KAD1 191038Z 33011KT M02/M04 A302 RMK A01 T10151036  RH  085%=      5-min Rain = 0
KAD1 191039Z 33011KT M02/M04 A302 RMK A01 T10151037  RH  085%=      5-min Rain = 0
KAD1 191040Z 33011KT M02/M04 A302 RMK A01 T10151037  RH  086%=      5-min Rain = 0
KAD1 191041Z 33011KT M02/M04 A302 RMK A01 T10161037  RH  086%=      5-min Rain = 0
KAD1 191042Z 33011KT M02/M04 A302 RMK A01 T10151036  RH  086%=      5-min Rain = 0
KAD1 191043Z 33010KT M02/M04 A302 RMK A01 T10161037  RH  086%=      5-min Rain = 0
KAD1 191044Z 33011KT M02/M04 A302 RMK A01 T10161037  RH  086%=      5-min Rain = 0
KAD1 191045Z 34010KT M02/M04 A302 RMK A01 T10171037  RH  086%=      5-min Rain = 0
KAD1 191046Z 33011KT M02/M04 A3019 RMK A01 T10161036  RH  086%=      5-min Rain = 0
KAD1 191047Z 33011KT M02/M04 A3019 RMK A01 T10171037  RH  086%=      5-min Rain = 0
KAD1 191048Z 33010KT M02/M04 A3019 RMK A01 T10171037  RH  086%=      5-min Rain = 0
KAD1 191049Z 33011KT M02/M04 A302 RMK A01 T10171037  RH  086%=      5-min Rain = 0
KAD1 191050Z 32009KT M02/M04 A302 RMK A01 T10171037  RH  086%=      5-min Rain = 0
KAD1 191051Z 33010KT M02/M04 A302 RMK A01 T10171037  RH  086%=      5-min Rain = 0
KAD1 191052Z 33010KT M02/M04 A302 RMK A01 T10181037  RH  086%=      5-min Rain = 0
KAD1 191053Z 33011KT M02/M04 A302 RMK A01 T10181037  RH  087%=      5-min Rain = 0
KAD1 191054Z 33010KT M02/M04 A302 RMK A01 T10181038  RH  086%=      5-min Rain = 0
KAD1 191055Z 33010KT M02/M04 A302 RMK A01 T10181037  RH  086%=      5-min Rain = 0
KAD1 191056Z 33010KT M02/M04 A302 RMK A01 T10181038  RH  087%=      5-min Rain = 0
KAD1 191057Z 33010KT M02/M04 A3019 RMK A01 T10181037  RH  087%=      5-min Rain = 0
KAD1 191058Z 33010KT M02/M04 A3019 RMK A01 T10181037  RH  087%=      5-min Rain = 0
KAD1 191059Z 33011KT M02/M04 A3019 RMK A01 T10181038  RH  087%=      5-min Rain = 0
KAD1 191100Z 33011KT M02/M04 A3019 RMK A01 T10181038  RH  087%=      5-min Rain = 0
KAD1 191101Z 33011KT M02/M04 A302 RMK A01 T10181038  RH  086%=      5-min Rain = 0
KAD1 191102Z 33010KT M02/M04 A302 RMK A01 T10181038  RH  086%=      5-min Rain = 0
KAD1 191103Z 33011KT M02/M04 A302 RMK A01 T10181038  RH  086%=      5-min Rain = 0
KAD1 191104Z 33011KT M02/M04 A302 RMK A01 T10181038  RH  086%=      5-min Rain = 0
KAD1 191105Z 33010KT M02/M04 A302 RMK A01 T10181038  RH  086%=      5-min Rain = 0
KAD1 191106Z 33011KT M02/M04 A302 RMK A01 T10181038  RH  086%=      5-min Rain = 0
KAD1 191107Z 33010KT M02/M04 A302 RMK A01 T10181038  RH  086%=      5-min Rain = 0
KAD1 191108Z 33010KT M02/M04 A302 RMK A01 T10181038  RH  086%=      5-min Rain = 0
KAD1 191109Z 33009KT M02/M04 A302 RMK A01 T10191039  RH  086%=      5-min Rain = 0
KAD1 191110Z 33010KT M02/M04 A302 RMK A01 T10191039  RH  087%=      5-min Rain = 0
KAD1 191111Z 33010KT M02/M04 A3019 RMK A01 T10191038  RH  087%=      5-min Rain = 0
KAD1 191112Z 33010KT M02/M04 A302 RMK A01 T10191039  RH  087%=      5-min Rain = 0
KAD1 191113Z 33010KT M02/M04 A3019 RMK A01 T10191039  RH  087%=      5-min Rain = 0
KAD1 191114Z 33010KT M02/M04 A302 RMK A01 T10191039  RH  086%=      5-min Rain = 0
KAD1 191115Z 33009KT M02/M04 A302 RMK A01 T10181038  RH  086%=      5-min Rain = 0
KAD1 191116Z 33010KT M02/M04 A302 RMK A01 T10181038  RH  086%=      5-min Rain = 0
KAD1 191117Z 34010KT M02/M04 A302 RMK A01 T10181039  RH  086%=      5-min Rain = 0
KAD1 191118Z 33011G16KT M02/M04 A302 RMK A01 T10171038  RH  086%=      5-min Rain = 0
KAD1 191119Z 33011KT M02/M04 A302 RMK A01 T10171038  RH  085%=      5-min Rain = 0
KAD1 191120Z 33011KT M02/M04 A302 RMK A01 T10151037  RH  085%=      5-min Rain = 0
KAD1 191121Z 33012KT M01/M04 A302 RMK A01 T10141038  RH  084%=      5-min Rain = 0
KAD1 191122Z 33011KT M02/M04 A302 RMK A01 T10151038  RH  084%=      5-min Rain = 0
KAD1 191123Z 33011KT M01/M04 A302 RMK A01 T10141038  RH  084%=      5-min Rain = 0
KAD1 191124Z 33011KT M01/M04 A302 RMK A01 T10141039  RH  083%=      5-min Rain = 0
KAD1 191125Z 33012KT M01/M04 A302 RMK A01 T10141039  RH  083%=      5-min Rain = 0
KAD1 191126Z 33011KT M01/M04 A302 RMK A01 T10141039  RH  083%=      5-min Rain = 0
KAD1 191127Z 33011KT M01/M04 A302 RMK A01 T10141039  RH  083%=      5-min Rain = 0
KAD1 191128Z 33010KT M01/M04 A302 RMK A01 T10131039  RH  083%=      5-min Rain = 0
KAD1 191129Z 33010KT M01/M04 A302 RMK A01 T10141039  RH  083%=      5-min Rain = 0
KAD1 191130Z 33009KT M02/M04 A302 RMK A01 T10151040  RH  083%=      5-min Rain = 0
KAD1 191131Z 33010KT M02/M04 A302 RMK A01 T10151039  RH  084%=      5-min Rain = 0
KAD1 191132Z 34010KT M02/M04 A302 RMK A01 T10151040  RH  084%=      5-min Rain = 0
KAD1 191133Z 34010KT M02/M04 A302 RMK A01 T10161040  RH  084%=      5-min Rain = 0
KAD1 191134Z 34011KT M02/M04 A302 RMK A01 T10151039  RH  084%=      5-min Rain = 0
KAD1 191135Z 34011KT M01/M04 A302 RMK A01 T10141039  RH  083%=      5-min Rain = 0
KAD1 191136Z 35012KT M01/M04 A302 RMK A01 T10131039  RH  083%=      5-min Rain = 0
KAD1 191137Z 34011KT M01/M04 A302 RMK A01 T10121039  RH  082%=      5-min Rain = 0
KAD1 191138Z 34011KT M01/M04 A302 RMK A01 T10111039  RH  082%=      5-min Rain = 0
KAD1 191139Z 34012KT M01/M04 A302 RMK A01 T10111039  RH  081%=      5-min Rain = 0
KAD1 191140Z 34010KT M01/M04 A302 RMK A01 T10111039  RH  081%=      5-min Rain = 0
KAD1 191141Z 34011KT M01/M04 A302 RMK A01 T10111039  RH  081%=      5-min Rain = 0
KAD1 191142Z 34012KT M01/M04 A302 RMK A01 T10111039  RH  081%=      5-min Rain = 0
KAD1 191143Z 34010KT M01/M04 A302 RMK A01 T10101039  RH  081%=      5-min Rain = 0
KAD1 191144Z 34011KT M01/M04 A302 RMK A01 T10101039  RH  081%=      5-min Rain = 0
KAD1 191145Z 34011KT M01/M04 A302 RMK A01 T10101039  RH  081%=      5-min Rain = 0
KAD1 191146Z 34011KT M01/M04 A302 RMK A01 T10101039  RH  080%=      5-min Rain = 0
KAD1 191147Z 34010KT M01/M04 A302 RMK A01 T10091039  RH  080%=      5-min Rain = 0
KAD1 191148Z 34009KT M01/M04 A302 RMK A01 T10091039  RH  080%=      5-min Rain = 0
KAD1 191149Z 34010KT M01/M04 A302 RMK A01 T10101039  RH  080%=      5-min Rain = 0
KAD1 191150Z 34011KT M01/M04 A302 RMK A01 T10101039  RH  081%=      5-min Rain = 0
KAD1 191151Z 33012KT M01/M04 A302 RMK A01 T10101039  RH  081%=      5-min Rain = 0
KAD1 191152Z 33009KT M01/M04 A302 RMK A01 T10101039  RH  081%=      5-min Rain = 0
KAD1 191153Z 33009KT M01/M04 A302 RMK A01 T10111040  RH  081%=      5-min Rain = 0
KAD1 191154Z 32010KT M01/M04 A302 RMK A01 T10121040  RH  081%=      5-min Rain = 0
KAD1 191155Z 32009KT M01/M04 A302 RMK A01 T10141040  RH  082%=      5-min Rain = 0
KAD1 191156Z 32009KT M02/M04 A302 RMK A01 T10151041  RH  083%=      5-min Rain = 0
KAD1 191157Z 32009KT M02/M04 A302 RMK A01 T10161041  RH  083%=      5-min Rain = 0
KAD1 191158Z 32009KT M02/M04 A3021 RMK A01 T10181042  RH  084%=      5-min Rain = 0
KAD1 191159Z 32010KT M02/M04 A3021 RMK A01 T10181042  RH  084%=      5-min Rain = 0
KAD1 191200Z 32009KT M02/M04 A3021 RMK A01 T10191042  RH  085%=      5-min Rain = 0
KAD1 191201Z 32008KT M02/M04 A3021 RMK A01 T10201042  RH  085%=      5-min Rain = 0
KAD1 191202Z 32009KT M02/M04 A3021 RMK A01 T10211042  RH  085%=      5-min Rain = 0
KAD1 191203Z 32009KT M02/M04 A3021 RMK A01 T10221042  RH  086%=      5-min Rain = 0
KAD1 191204Z 32009KT M02/M04 A3021 RMK A01 T10221042  RH  086%=      5-min Rain = 0
KAD1 191205Z 32009KT M02/M04 A3021 RMK A01 T10221042  RH  086%=      5-min Rain = 0
KAD1 191206Z 32009KT M02/M04 A3021 RMK A01 T10221042  RH  086%=      5-min Rain = 0
KAD1 191207Z 32008KT M02/M04 A3021 RMK A01 T10231042  RH  087%=      5-min Rain = 0
KAD1 191208Z 32009KT M02/M04 A3021 RMK A01 T10231042  RH  087%=      5-min Rain = 0
KAD1 191209Z 32008KT M02/M04 A3021 RMK A01 T10231042  RH  087%=      5-min Rain = 0
KAD1 191210Z 32008KT M02/M04 A3022 RMK A01 T10231043  RH  087%=      5-min Rain = 0
KAD1 191211Z 32008KT M02/M04 A3022 RMK A01 T10241043  RH  087%=      5-min Rain = 0
KAD1 191212Z 32008KT M03/M04 A3022 RMK A01 T10251043  RH  087%=      5-min Rain = 0
KAD1 191213Z 32009KT M03/M04 A3022 RMK A01 T10251043  RH  087%=      5-min Rain = 0
KAD1 191214Z 32008KT M02/M04 A3022 RMK A01 T10241042  RH  088%=      5-min Rain = 0
KAD1 191215Z 32008KT M02/M04 A3022 RMK A01 T10241042  RH  087%=      5-min Rain = 0
KAD1 191216Z 32007KT M02/M04 A3022 RMK A01 T10241043  RH  087%=      5-min Rain = 0
KAD1 191217Z 32007KT M02/M04 A3022 RMK A01 T10241043  RH  087%=      5-min Rain = 0
KAD1 191218Z 32008KT M02/M04 A3022 RMK A01 T10241043  RH  087%=      5-min Rain = 0
KAD1 191219Z 33007KT M02/M04 A3022 RMK A01 T10241043  RH  087%=      5-min Rain = 0
KAD1 191220Z 33007KT M02/M04 A3022 RMK A01 T10241043  RH  087%=      5-min Rain = 0
KAD1 191221Z 33007KT M02/M04 A3022 RMK A01 T10241043  RH  087%=      5-min Rain = 0
KAD1 191222Z 32007KT M03/M04 A3022 RMK A01 T10251044  RH  087%=      5-min Rain = 0
KAD1 191223Z 32007KT M03/M04 A3022 RMK A01 T10251043  RH  087%=      5-min Rain = 0
KAD1 191224Z 32008KT M03/M04 A3022 RMK A01 T10251043  RH  087%=      5-min Rain = 0
KAD1 191225Z 32007KT M03/M04 A3022 RMK A01 T10251043  RH  087%=      5-min Rain = 0
KAD1 191226Z 32008KT M03/M04 A3022 RMK A01 T10251043  RH  087%=      5-min Rain = 0
KAD1 191227Z 32007KT M03/M04 A3022 RMK A01 T10251043  RH  087%=      5-min Rain = 0
KAD1 191228Z 32007KT M02/M04 A3022 RMK A01 T10241043  RH  087%=      5-min Rain = 0
KAD1 191229Z 32007KT M02/M04 A3022 RMK A01 T10241043  RH  087%=      5-min Rain = 0
KAD1 191230Z 32008KT M02/M04 A3022 RMK A01 T10241044  RH  086%=      5-min Rain = 0
KAD1 191231Z 32008KT M02/M04 A3022 RMK A01 T10241043  RH  086%=      5-min Rain = 0
KAD1 191232Z 32007KT M02/M04 A3022 RMK A01 T10231043  RH  086%=      5-min Rain = 0
KAD1 191233Z 32007KT M02/M04 A3022 RMK A01 T10241044  RH  086%=      5-min Rain = 0
KAD1 191234Z 32008KT M02/M04 A3022 RMK A01 T10241044  RH  086%=      5-min Rain = 0
KAD1 191235Z 32008KT M02/M04 A3022 RMK A01 T10241043  RH  086%=      5-min Rain = 0
KAD1 191236Z 32008KT M02/M04 A3022 RMK A01 T10231043  RH  086%=      5-min Rain = 0
KAD1 191237Z 32008KT M02/M04 A3023 RMK A01 T10231043  RH  086%=      5-min Rain = 0
KAD1 191238Z 32008KT M02/M04 A3023 RMK A01 T10231044  RH  086%=      5-min Rain = 0
KAD1 191239Z 32008KT M02/M04 A3023 RMK A01 T10221043  RH  085%=      5-min Rain = 0
KAD1 191240Z 33008KT M02/M04 A3023 RMK A01 T10221043  RH  085%=      5-min Rain = 0
KAD1 191241Z 32008KT M02/M04 A3023 RMK A01 T10221044  RH  085%=      5-min Rain = 0
KAD1 191242Z 32008KT M02/M04 A3023 RMK A01 T10221043  RH  085%=      5-min Rain = 0
KAD1 191243Z 32009KT M02/M04 A3023 RMK A01 T10211043  RH  085%=      5-min Rain = 0
KAD1 191244Z 32009KT M02/M04 A3023 RMK A01 T10201042  RH  085%=      5-min Rain = 0
KAD1 191245Z 32009KT M02/M04 A3023 RMK A01 T10201043  RH  085%=      5-min Rain = 0
KAD1 191246Z 32008KT M02/M04 A3023 RMK A01 T10201043  RH  084%=      5-min Rain = 0
KAD1 191247Z 32008KT M02/M04 A3023 RMK A01 T10211043  RH  085%=      5-min Rain = 0
KAD1 191248Z 32009KT M02/M04 A3023 RMK A01 T10211043  RH  085%=      5-min Rain = 0
KAD1 191249Z 32009KT M02/M04 A3023 RMK A01 T10211043  RH  085%=      5-min Rain = 0
KAD1 191250Z 32009KT M02/M04 A3023 RMK A01 T10211043  RH  085%=      5-min Rain = 0
KAD1 191251Z 32009KT M02/M04 A3023 RMK A01 T10201043  RH  084%=      5-min Rain = 0
KAD1 191252Z 32009KT M02/M04 A3023 RMK A01 T10201043  RH  084%=      5-min Rain = 0
KAD1 191253Z 32008KT M02/M04 A3023 RMK A01 T10201043  RH  084%=      5-min Rain = 0
KAD1 191254Z 32008KT M02/M04 A3023 RMK A01 T10201043  RH  084%=      5-min Rain = 0
KAD1 191255Z 32007KT M02/M04 A3023 RMK A01 T10211044  RH  084%=      5-min Rain = 0
KAD1 191256Z 32007KT M02/M04 A3023 RMK A01 T10211044  RH  084%=      5-min Rain = 0
KAD1 191257Z 32008KT M02/M04 A3023 RMK A01 T10221044  RH  085%=      5-min Rain = 0
KAD1 191258Z 32008KT M02/M04 A3023 RMK A01 T10221044  RH  085%=      5-min Rain = 0
KAD1 191259Z 32007KT M02/M04 A3023 RMK A01 T10221044  RH  085%=      5-min Rain = 0
KAD1 191300Z 32008KT M02/M04 A3024 RMK A01 T10221044  RH  085%=      5-min Rain = 0
KAD1 191301Z 32008KT M02/M04 A3024 RMK A01 T10221044  RH  085%=      5-min Rain = 0
KAD1 191302Z 32007KT M02/M04 A3024 RMK A01 T10211044  RH  084%=      5-min Rain = 0
KAD1 191303Z 32007KT M02/M04 A3024 RMK A01 T10211044  RH  084%=      5-min Rain = 0
KAD1 191304Z 32007KT M02/M04 A3024 RMK A01 T10211044  RH  084%=      5-min Rain = 0
KAD1 191305Z 32007KT M02/M04 A3024 RMK A01 T10211044  RH  084%=      5-min Rain = 0
KAD1 191306Z 32007KT M02/M05 A3024 RMK A01 T10221045  RH  084%=      5-min Rain = 0
KAD1 191307Z 32007KT M02/M04 A3024 RMK A01 T10221044  RH  084%=      5-min Rain = 0
KAD1 191308Z 32006KT M02/M05 A3024 RMK A01 T10221045  RH  084%=      5-min Rain = 0
KAD1 191309Z 32007KT M02/M04 A3024 RMK A01 T10211044  RH  084%=      5-min Rain = 0
KAD1 191310Z 32007KT M02/M04 A3024 RMK A01 T10211044  RH  084%=      5-min Rain = 0
KAD1 191311Z 32007KT M02/M05 A3024 RMK A01 T10221045  RH  084%=      5-min Rain = 0
KAD1 191312Z 32007KT M02/M05 A3024 RMK A01 T10211045  RH  084%=      5-min Rain = 0
KAD1 191313Z 32007KT M02/M04 A3024 RMK A01 T10211044  RH  084%=      5-min Rain = 0
KAD1 191314Z 32007KT M02/M05 A3024 RMK A01 T10211045  RH  084%=      5-min Rain = 0
KAD1 191315Z 32007KT M02/M05 A3025 RMK A01 T10211045  RH  084%=      5-min Rain = 0
KAD1 191316Z 32008KT M02/M05 A3025 RMK A01 T10211045  RH  084%=      5-min Rain = 0
KAD1 191317Z 33008KT M02/M05 A3024 RMK A01 T10221045  RH  084%=      5-min Rain = 0
KAD1 191318Z 33007KT M02/M04 A3024 RMK A01 T10211044  RH  084%=      5-min Rain = 0
KAD1 191319Z 33007KT M02/M05 A3024 RMK A01 T10211045  RH  084%=      5-min Rain = 0
KAD1 191320Z 32007KT M02/M05 A3024 RMK A01 T10211045  RH  084%=      5-min Rain = 0
KAD1 191321Z 33008KT M02/M05 A3024 RMK A01 T10211045  RH  084%=      5-min Rain = 0
KAD1 191322Z 33007KT M02/M04 A3024 RMK A01 T10211044  RH  084%=      5-min Rain = 0
KAD1 191323Z 33007KT M02/M04 A3024 RMK A01 T10201044  RH  084%=      5-min Rain = 0
KAD1 191324Z 32008KT M02/M04 A3024 RMK A01 T10201044  RH  084%=      5-min Rain = 0
KAD1 191325Z 33008KT M02/M04 A3024 RMK A01 T10201044  RH  084%=      5-min Rain = 0
KAD1 191326Z 33008KT M02/M04 A3025 RMK A01 T10201044  RH  084%=      5-min Rain = 0
KAD1 191327Z 32008KT M02/M04 A3025 RMK A01 T10191044  RH  083%=      5-min Rain = 0
KAD1 191328Z 33008KT M02/M04 A3025 RMK A01 T10191044  RH  083%=      5-min Rain = 0
KAD1 191329Z 33008KT M02/M04 A3025 RMK A01 T10181044  RH  083%=      5-min Rain = 0
KAD1 191330Z 33009KT M02/M04 A3025 RMK A01 T10181044  RH  082%=      5-min Rain = 0
KAD1 191331Z 33008KT M02/M04 A3025 RMK A01 T10171044  RH  082%=      5-min Rain = 0
KAD1 191332Z 33008KT M02/M04 A3025 RMK A01 T10171044  RH  082%=      5-min Rain = 0
KAD1 191333Z 33007KT M02/M04 A3025 RMK A01 T10171044  RH  082%=      5-min Rain = 0
KAD1 191334Z 33008KT M02/M04 A3025 RMK A01 T10161043  RH  082%=      5-min Rain = 0
KAD1 191335Z 33008KT M02/M04 A3025 RMK A01 T10171044  RH  082%=      5-min Rain = 0
KAD1 191336Z 33007KT M02/M04 A3025 RMK A01 T10181044  RH  082%=      5-min Rain = 0
KAD1 191337Z 34009KT M02/M04 A3025 RMK A01 T10181044  RH  083%=      5-min Rain = 0
KAD1 191338Z 33008KT M02/M04 A3025 RMK A01 T10171043  RH  082%=      5-min Rain = 0
KAD1 191339Z 33009KT M02/M04 A3025 RMK A01 T10161043  RH  082%=      5-min Rain = 0
KAD1 191340Z 33009KT M02/M04 A3025 RMK A01 T10151043  RH  081%=      5-min Rain = 0
KAD1 191341Z 33008KT M01/M04 A3025 RMK A01 T10141043  RH  081%=      5-min Rain = 0
KAD1 191342Z 33008KT M01/M04 A3025 RMK A01 T10141043  RH  081%=      5-min Rain = 0
KAD1 191343Z 33008KT M01/M04 A3025 RMK A01 T10141043  RH  081%=      5-min Rain = 0
KAD1 191344Z 33008KT M02/M04 A3025 RMK A01 T10151044  RH  081%=      5-min Rain = 0
KAD1 191345Z 33008KT M02/M04 A3026 RMK A01 T10151044  RH  081%=      5-min Rain = 0
KAD1 191346Z 33009KT M02/M04 A3026 RMK A01 T10151044  RH  081%=      5-min Rain = 0
KAD1 191347Z 33007KT M02/M04 A3026 RMK A01 T10151044  RH  081%=      5-min Rain = 0
KAD1 191348Z 33009KT M02/M04 A3026 RMK A01 T10151044  RH  081%=      5-min Rain = 0
KAD1 191349Z 33009KT M02/M04 A3026 RMK A01 T10151044  RH  081%=      5-min Rain = 0
KAD1 191350Z 33009KT M01/M04 A3026 RMK A01 T10141043  RH  081%=      5-min Rain = 0
KAD1 191351Z 33007KT M01/M04 A3026 RMK A01 T10131043  RH  080%=      5-min Rain = 0
KAD1 191352Z 33007KT M01/M04 A3026 RMK A01 T10131043  RH  080%=      5-min Rain = 0
KAD1 191353Z 33007KT M01/M04 A3026 RMK A01 T10141044  RH  080%=      5-min Rain = 0
KAD1 191354Z 34007KT M02/M04 A3026 RMK A01 T10151044  RH  080%=      5-min Rain = 0
KAD1 191355Z 34008KT M02/M04 A3026 RMK A01 T10151044  RH  081%=      5-min Rain = 0
KAD1 191356Z 33009KT M02/M04 A3026 RMK A01 T10151044  RH  081%=      5-min Rain = 0
KAD1 191357Z 34010KT M01/M04 A3026 RMK A01 T10131043  RH  080%=      5-min Rain = 0
KAD1 191358Z 34010KT M01/M04 A3026 RMK A01 T10101042  RH  079%=      5-min Rain = 0
KAD1 191359Z 34010KT M01/M04 A3026 RMK A01 T10081042  RH  078%=      5-min Rain = 0
KAD1 191400Z 34009KT M01/M04 A3026 RMK A01 T10061042  RH  077%=      5-min Rain = 0
KAD1 191401Z 34009KT M01/M04 A3026 RMK A01 T10061042  RH  077%=      5-min Rain = 0
KAD1 191402Z 34008KT M01/M04 A3027 RMK A01 T10061043  RH  076%=      5-min Rain = 0
KAD1 191403Z 34009KT M01/M04 A3027 RMK A01 T10061043  RH  076%=      5-min Rain = 0
KAD1 191404Z 34009KT M01/M04 A3027 RMK A01 T10071043  RH  076%=      5-min Rain = 0
KAD1 191405Z 33008KT M01/M04 A3027 RMK A01 T10071043  RH  076%=      5-min Rain = 0
KAD1 191406Z 34009KT M01/M04 A3027 RMK A01 T10061043  RH  076%=      5-min Rain = 0
KAD1 191407Z 34009KT M01/M04 A3027 RMK A01 T10061043  RH  076%=      5-min Rain = 0
KAD1 191408Z 34010KT M01/M04 A3027 RMK A01 T10051043  RH  076%=      5-min Rain = 0
KAD1 191409Z 34010KT M00/M04 A3027 RMK A01 T10041043  RH  075%=      5-min Rain = 0
KAD1 191410Z 34010KT M00/M04 A3027 RMK A01 T10031042  RH  075%=      5-min Rain = 0
KAD1 191411Z 34009KT M00/M04 A3027 RMK A01 T10011042  RH  074%=      5-min Rain = 0
KAD1 191412Z 35010KT M00/M04 A3027 RMK A01 T10011042  RH  074%=      5-min Rain = 0
KAD1 191413Z 34009KT M00/M04 A3027 RMK A01 T10011043  RH  073%=      5-min Rain = 0
KAD1 191414Z 35009KT M00/M04 A3027 RMK A01 T10011043  RH  073%=      5-min Rain = 0
KAD1 191415Z 35010KT 00/04 A3027 RMK A01 T00-00-42  RH  073%=      5-min Rain = 0
KAD1 191416Z 35009KT 00/04 A3027 RMK A01 T00000-42  RH  074%=      5-min Rain = 0
KAD1 191417Z 35009KT 00/04 A3027 RMK A01 T00-00-42  RH  074%=      5-min Rain = 0
KAD1 191418Z 35009KT M00/M04 A3027 RMK A01 T10011041  RH  074%=      5-min Rain = 0
KAD1 191419Z 35010KT 00/04 A3027 RMK A01 T00000-42  RH  073%=      5-min Rain = 0
KAD1 191420Z 34009KT 00/M04 A3027 RMK A01 T00011041  RH  073%=      5-min Rain = 0
KAD1 191421Z 35009KT 00/M04 A3027 RMK A01 T00031041  RH  073%=      5-min Rain = 0
KAD1 191422Z 34009KT 00/M04 A3027 RMK A01 T00031041  RH  072%=      5-min Rain = 0
KAD1 191423Z 34008KT 00/M04 A3027 RMK A01 T00021041  RH  073%=      5-min Rain = 0
KAD1 191424Z 34009KT 00/M04 A3027 RMK A01 T00011041  RH  074%=      5-min Rain = 0
KAD1 191425Z 34009KT 00/04 A3027 RMK A01 T00000-41  RH  074%=      5-min Rain = 0
KAD1 191426Z 34009KT 00/04 A3027 RMK A01 T00-00-41  RH  074%=      5-min Rain = 0
KAD1 191427Z 34009KT 00/04 A3027 RMK A01 T00-00-41  RH  074%=      5-min Rain = 0
KAD1 191428Z 34008KT 00/04 A3028 RMK A01 T00-00-41  RH  074%=      5-min Rain = 0
KAD1 191429Z 33008KT M00/M04 A3027 RMK A01 T10011041  RH  074%=      5-min Rain = 0
KAD1 191430Z 33008KT M00/M04 A3028 RMK A01 T10011041  RH  074%=      5-min Rain = 0
KAD1 191431Z 33008KT M00/M04 A3028 RMK A01 T10011042  RH  074%=      5-min Rain = 0
KAD1 191432Z 34009KT M00/M04 A3028 RMK A01 T10011041  RH  074%=      5-min Rain = 0
KAD1 191433Z 34009KT M00/M04 A3028 RMK A01 T10021042  RH  074%=      5-min Rain = 0
KAD1 191434Z 33008KT M00/M04 A3028 RMK A01 T10011041  RH  074%=      5-min Rain = 0
KAD1 191435Z 33008KT M00/M04 A3028 RMK A01 T10011042  RH  074%=      5-min Rain = 0
KAD1 191436Z 33008KT M00/M04 A3028 RMK A01 T10011042  RH  074%=      5-min Rain = 0
KAD1 191437Z 33008KT M00/M04 A3028 RMK A01 T10011042  RH  074%=      5-min Rain = 0
KAD1 191438Z 33008KT M00/M04 A3028 RMK A01 T10011042  RH  074%=      5-min Rain = 0
KAD1 191439Z 33008KT M00/M04 A3028 RMK A01 T10011041  RH  074%=      5-min Rain = 0
KAD1 191440Z 33007KT M00/M04 A3028 RMK A01 T10011041  RH  074%=      5-min Rain = 0
KAD1 191441Z 33007KT M00/M04 A3028 RMK A01 T10011041  RH  074%=      5-min Rain = 0
KAD1 191442Z 33008KT M00/M04 A3028 RMK A01 T10011041  RH  075%=      5-min Rain = 0
KAD1 191443Z 34007KT M00/M04 A3028 RMK A01 T10011040  RH  075%=      5-min Rain = 0
KAD1 191444Z 33008KT M00/M04 A3028 RMK A01 T10011041  RH  075%=      5-min Rain = 0
KAD1 191445Z 33007KT 00/04 A3028 RMK A01 T00-00-41  RH  074%=      5-min Rain = 0
KAD1 191446Z 33007KT 00/M04 A3028 RMK A01 T00011040  RH  074%=      5-min Rain = 0
KAD1 191447Z 33007KT 00/04 A3028 RMK A01 T00000-40  RH  074%=      5-min Rain = 0
KAD1 191448Z 33007KT 00/04 A3028 RMK A01 T00000-41  RH  074%=      5-min Rain = 0
KAD1 191449Z 33009KT 00/04 A3028 RMK A01 T00000-40  RH  074%=      5-min Rain = 0
KAD1 191450Z 33008KT 00/M04 A3028 RMK A01 T00011040  RH  074%=      5-min Rain = 0
KAD1 191451Z 33008KT 00/M04 A3028 RMK A01 T00021039  RH  074%=      5-min Rain = 0
KAD1 191452Z 32008KT 00/M04 A3028 RMK A01 T00021040  RH  073%=      5-min Rain = 0
KAD1 191453Z 32007KT 00/M04 A3028 RMK A01 T00021041  RH  073%=      5-min Rain = 0
KAD1 191454Z 33007KT 00/M04 A3028 RMK A01 T00011040  RH  074%=      5-min Rain = 0
KAD1 191455Z 32007KT 00/M04 A3028 RMK A01 T00011039  RH  075%=      5-min Rain = 0
KAD1 191456Z 33007KT 00/M04 A3028 RMK A01 T00011039  RH  074%=      5-min Rain = 0
KAD1 191457Z 33008KT 00/M04 A3028 RMK A01 T00011039  RH  075%=      5-min Rain = 0
KAD1 191458Z 33008KT 00/M04 A3028 RMK A01 T00011039  RH  075%=      5-min Rain = 0
KAD1 191459Z 33008KT 00/M04 A3028 RMK A01 T00011038  RH  075%=      5-min Rain = 0
KAD1 191500Z 34009KT 00/M04 A3028 RMK A01 T00021038  RH  075%=      5-min Rain = 0
KAD1 191501Z 33008KT 00/M04 A3028 RMK A01 T00031038  RH  074%=      5-min Rain = 0
KAD1 191502Z 33009KT 00/M04 A3028 RMK A01 T00021037  RH  075%=      5-min Rain = 0
KAD1 191503Z 34008KT 00/M04 A3028 RMK A01 T00031038  RH  074%=      5-min Rain = 0
KAD1 191504Z 34009KT 00/M04 A3028 RMK A01 T00031037  RH  074%=      5-min Rain = 0
KAD1 191505Z 34008KT 00/M04 A3028 RMK A01 T00041037  RH  074%=      5-min Rain = 0
KAD1 191506Z 34008KT 01/M04 A3028 RMK A01 T00051037  RH  074%=      5-min Rain = 0
KAD1 191507Z 34009KT 01/M04 A3028 RMK A01 T00061037  RH  073%=      5-min Rain = 0
KAD1 191508Z 33008KT 01/M04 A3028 RMK A01 T00071036  RH  073%=      5-min Rain = 0
KAD1 191509Z 34009KT 01/M04 A3028 RMK A01 T00071036  RH  073%=      5-min Rain = 0
KAD1 191510Z 34008KT 01/M04 A3028 RMK A01 T00081035  RH  073%=      5-min Rain = 0
KAD1 191511Z 33008KT 01/M04 A3028 RMK A01 T00091035  RH  073%=      5-min Rain = 0
KAD1 191512Z 33009KT 01/M04 A3028 RMK A01 T00091035  RH  072%=      5-min Rain = 0
KAD1 191513Z 32008KT 01/M03 A3028 RMK A01 T00091034  RH  073%=      5-min Rain = 0
KAD1 191514Z 32008KT 01/M04 A3028 RMK A01 T00091035  RH  073%=      5-min Rain = 0
KAD1 191515Z 32008KT 01/M04 A3029 RMK A01 T00081037  RH  072%=      5-min Rain = 0
KAD1 191516Z 32009KT 01/M04 A3029 RMK A01 T00071035  RH  073%=      5-min Rain = 0
KAD1 191517Z 32008KT 01/M04 A3029 RMK A01 T00071035  RH  073%=      5-min Rain = 0
KAD1 191518Z 32006KT 01/M03 A3029 RMK A01 T00071034  RH  074%=      5-min Rain = 0
KAD1 191519Z 32008KT 01/M03 A3029 RMK A01 T00061033  RH  075%=      5-min Rain = 0
KAD1 191520Z 33007KT 01/M03 A3029 RMK A01 T00061034  RH  074%=      5-min Rain = 0
KAD1 191521Z 32008KT 01/M03 A3029 RMK A01 T00061033  RH  075%=      5-min Rain = 0
KAD1 191522Z 33007KT 01/M03 A3029 RMK A01 T00061033  RH  075%=      5-min Rain = 0
KAD1 191523Z 32007KT 01/M03 A3029 RMK A01 T00061033  RH  075%=      5-min Rain = 0
KAD1 191524Z 32008KT 01/M03 A3029 RMK A01 T00061033  RH  075%=      5-min Rain = 0
KAD1 191525Z 33009KT 01/M03 A3029 RMK A01 T00071034  RH  075%=      5-min Rain = 0
KAD1 191526Z 33008KT 01/M03 A3029 RMK A01 T00081033  RH  074%=      5-min Rain = 0
KAD1 191527Z 33008KT 01/M03 A3029 RMK A01 T00081032  RH  074%=      5-min Rain = 0
KAD1 191528Z 34008KT 01/M03 A3029 RMK A01 T00081031  RH  075%=      5-min Rain = 0
KAD1 191529Z 34009KT 01/M03 A3029 RMK A01 T00091031  RH  075%=      5-min Rain = 0
KAD1 191530Z 34008KT 01/M03 A3029 RMK A01 T00091032  RH  074%=      5-min Rain = 0
KAD1 191531Z 34008KT 01/M03 A3029 RMK A01 T00091031  RH  074%=      5-min Rain = 0
KAD1 191532Z 34008KT 01/M03 A3029 RMK A01 T00101031  RH  074%=      5-min Rain = 0
KAD1 191533Z 34009KT 01/M03 A303 RMK A01 T00101030  RH  075%=      5-min Rain = 0
KAD1 191534Z 34010KT 01/M03 A303 RMK A01 T00101030  RH  074%=      5-min Rain = 0
KAD1 191535Z 34008KT 01/M03 A303 RMK A01 T00101030  RH  074%=      5-min Rain = 0
KAD1 191536Z 34010KT 01/M03 A303 RMK A01 T00101030  RH  075%=      5-min Rain = 0
KAD1 191537Z 34009KT 01/M03 A303 RMK A01 T00101031  RH  074%=      5-min Rain = 0
KAD1 191538Z 34008KT 01/M03 A303 RMK A01 T00111030  RH  074%=      5-min Rain = 0
KAD1 191539Z 34009KT 01/M03 A303 RMK A01 T00111029  RH  075%=      5-min Rain = 0
KAD1 191540Z 33010KT 01/M03 A303 RMK A01 T00111031  RH  074%=      5-min Rain = 0
KAD1 191541Z 34009KT 01/M03 A303 RMK A01 T00111032  RH  073%=      5-min Rain = 0
KAD1 191542Z 34008KT 01/M03 A303 RMK A01 T00121029  RH  074%=      5-min Rain = 0
KAD1 191543Z 34007KT 01/M03 A303 RMK A01 T00121027  RH  075%=      5-min Rain = 0
KAD1 191544Z 34008KT 01/M03 A303 RMK A01 T00131030  RH  073%=      5-min Rain = 0
KAD1 191545Z 34008KT 01/M03 A303 RMK A01 T00131029  RH  073%=      5-min Rain = 0
KAD1 191546Z 33009KT 01/M03 A303 RMK A01 T00141028  RH  073%=      5-min Rain = 0
KAD1 191547Z 33010KT 02/M03 A303 RMK A01 T00151030  RH  072%=      5-min Rain = 0
KAD1 191548Z 33010KT 02/M03 A303 RMK A01 T00151031  RH  072%=      5-min Rain = 0
KAD1 191549Z 33008KT 02/M03 A303 RMK A01 T00151030  RH  072%=      5-min Rain = 0
KAD1 191550Z 33009KT 02/M03 A303 RMK A01 T00161028  RH  073%=      5-min Rain = 0
KAD1 191551Z 33008KT 02/M03 A303 RMK A01 T00161029  RH  072%=      5-min Rain = 0.01
KAD1 191552Z 33010KT 02/M03 A303 RMK A01 T00161029  RH  072%=      5-min Rain = 0
KAD1 191553Z 33008KT 02/M03 A303 RMK A01 T00161028  RH  072%=      5-min Rain = 0
KAD1 191554Z 33009KT 02/M03 A303 RMK A01 T00161026  RH  073%=      5-min Rain = 0
KAD1 191555Z 33010KT 02/M03 A303 RMK A01 T00161026  RH  073%=      5-min Rain = 0
KAD1 191556Z 33009KT 02/M03 A303 RMK A01 T00171027  RH  073%=      5-min Rain = 0
KAD1 191557Z 33010KT 02/M03 A303 RMK A01 T00171026  RH  073%=      5-min Rain = 0
KAD1 191558Z 33011KT 02/M03 A303 RMK A01 T00171028  RH  072%=      5-min Rain = 0
KAD1 191559Z 32009KT 02/M03 A303 RMK A01 T00171027  RH  072%=      5-min Rain = 0
KAD1 191600Z 33009KT 02/M03 A303 RMK A01 T00171027  RH  072%=      5-min Rain = 0
KAD1 191601Z 33010KT 02/M03 A303 RMK A01 T00171025  RH  073%=      5-min Rain = 0
KAD1 191602Z 32010KT 02/M03 A303 RMK A01 T00171025  RH  073%=      5-min Rain = 0
KAD1 191603Z 33011KT 02/M03 A303 RMK A01 T00171027  RH  073%=      5-min Rain = 0
KAD1 191604Z 33008KT 02/M03 A303 RMK A01 T00161028  RH  073%=      5-min Rain = 0
KAD1 191605Z 34009KT 02/M02 A303 RMK A01 T00161023  RH  075%=      5-min Rain = 0
KAD1 191606Z 34008KT 02/M02 A303 RMK A01 T00171023  RH  075%=      5-min Rain = 0
KAD1 191607Z 34009KT 02/M02 A303 RMK A01 T00181021  RH  076%=      5-min Rain = 0
KAD1 191608Z 34010KT 02/M02 A303 RMK A01 T00181023  RH  074%=      5-min Rain = 0
KAD1 191609Z 34009KT 02/M03 A303 RMK A01 T00181025  RH  073%=      5-min Rain = 0
KAD1 191610Z 34010KT 02/M03 A303 RMK A01 T00181026  RH  073%=      5-min Rain = 0
KAD1 191611Z 34009KT 02/M02 A303 RMK A01 T00181023  RH  074%=      5-min Rain = 0
KAD1 191612Z 35008KT 02/M02 A303 RMK A01 T00191020  RH  075%=      5-min Rain = 0
KAD1 191613Z 34008KT 02/M02 A303 RMK A01 T00201021  RH  074%=      5-min Rain = 0
KAD1 191614Z 34008KT 02/M02 A303 RMK A01 T00211021  RH  074%=      5-min Rain = 0
KAD1 191615Z 34010KT 02/M02 A303 RMK A01 T00211022  RH  073%=      5-min Rain = 0
KAD1 191616Z 34010KT 02/M02 A303 RMK A01 T00211024  RH  072%=      5-min Rain = 0
KAD1 191617Z 33010KT 02/M03 A303 RMK A01 T00211026  RH  071%=      5-min Rain = 0
KAD1 191618Z 34010KT 02/M02 A303 RMK A01 T00211024  RH  072%=      5-min Rain = 0
KAD1 191619Z 34010KT 02/M02 A303 RMK A01 T00211022  RH  073%=      5-min Rain = 0
KAD1 191620Z 33009KT 02/M03 A303 RMK A01 T00221025  RH  071%=      5-min Rain = 0
KAD1 191621Z 34009KT 02/M02 A303 RMK A01 T00221024  RH  072%=      5-min Rain = 0
KAD1 191622Z 34009KT 02/M02 A303 RMK A01 T00221024  RH  071%=      5-min Rain = 0
KAD1 191623Z 33008KT 02/M02 A303 RMK A01 T00231023  RH  072%=      5-min Rain = 0
KAD1 191624Z 33008KT 02/M02 A3031 RMK A01 T00241018  RH  074%=      5-min Rain = 0
KAD1 191625Z 34008KT 02/M02 A3031 RMK A01 T00241021  RH  072%=      5-min Rain = 0
KAD1 191626Z 33009KT 02/M02 A3031 RMK A01 T00241021  RH  072%=      5-min Rain = 0
KAD1 191627Z 33008KT 03/M02 A3031 RMK A01 T00251017  RH  073%=      5-min Rain = 0
KAD1 191628Z 33010KT 03/M02 A3031 RMK A01 T00261018  RH  073%=      5-min Rain = 0
KAD1 191629Z 33012KT 03/M02 A3031 RMK A01 T00261022  RH  071%=      5-min Rain = 0
KAD1 191630Z 33011KT 03/M02 A3031 RMK A01 T00251022  RH  071%=      5-min Rain = 0
KAD1 191631Z 33010KT 02/M03 A3031 RMK A01 T00241026  RH  069%=      5-min Rain = 0
KAD1 191632Z 33010KT 02/M03 A3031 RMK A01 T00241025  RH  070%=      5-min Rain = 0
KAD1 191633Z 34011KT 02/M02 A3031 RMK A01 T00241023  RH  071%=      5-min Rain = 0
KAD1 191634Z 34011KT 02/M02 A3031 RMK A01 T00241023  RH  071%=      5-min Rain = 0
KAD1 191635Z 34011KT 03/M02 A3031 RMK A01 T00251022  RH  071%=      5-min Rain = 0
KAD1 191636Z 35010KT 03/M02 A3031 RMK A01 T00261018  RH  073%=      5-min Rain = 0
KAD1 191637Z 34009KT 03/M02 A3031 RMK A01 T00271019  RH  072%=      5-min Rain = 0
KAD1 191638Z 35009KT 03/M02 A3031 RMK A01 T00281019  RH  071%=      5-min Rain = 0
KAD1 191639Z 34009KT 03/M02 A3031 RMK A01 T00281018  RH  072%=      5-min Rain = 0
KAD1 191640Z 35010KT 03/M02 A3032 RMK A01 T00291018  RH  071%=      5-min Rain = 0
KAD1 191641Z 35011KT 03/M02 A3032 RMK A01 T00291019  RH  071%=      5-min Rain = 0
KAD1 191642Z 35010KT 03/M02 A3032 RMK A01 T00291019  RH  071%=      5-min Rain = 0
KAD1 191643Z 00012KT 03/M02 A3032 RMK A01 T00291019  RH  071%=      5-min Rain = 0
KAD1 191644Z 35011KT 03/M02 A3032 RMK A01 T00291019  RH  071%=      5-min Rain = 0
KAD1 191645Z 35010KT 03/M02 A3032 RMK A01 T00291018  RH  071%=      5-min Rain = 0
KAD1 191646Z 35012KT 03/M02 A3032 RMK A01 T00301017  RH  071%=      5-min Rain = 0
KAD1 191647Z 35010KT 03/M02 A3032 RMK A01 T00301020  RH  070%=      5-min Rain = 0
KAD1 191648Z 34011KT 03/M02 A3032 RMK A01 T00301018  RH  071%=      5-min Rain = 0
KAD1 191649Z 35011KT 03/M02 A3032 RMK A01 T00301021  RH  069%=      5-min Rain = 0
KAD1 191650Z 35009KT 03/M02 A3032 RMK A01 T00311015  RH  072%=      5-min Rain = 0
KAD1 191651Z 35012KT 03/M01 A3032 RMK A01 T00321014  RH  072%=      5-min Rain = 0
KAD1 191652Z 36012KT 03/M02 A3032 RMK A01 T00331018  RH  070%=      5-min Rain = 0
KAD1 191653Z 36013KT 03/M02 A3032 RMK A01 T00331018  RH  070%=      5-min Rain = 0
KAD1 191654Z 00010KT 03/M02 A3033 RMK A01 T00321019  RH  069%=      5-min Rain = 0
KAD1 191655Z 36012KT 03/M02 A3033 RMK A01 T00321016  RH  070%=      5-min Rain = 0
KAD1 191656Z 01009KT 03/M02 A3032 RMK A01 T00331018  RH  069%=      5-min Rain = 0
KAD1 191657Z 00008KT 03/M01 A3032 RMK A01 T00341014  RH  071%=      5-min Rain = 0
KAD1 191658Z 00009KT 04/M01 A3032 RMK A01 T00361007  RH  073%=      5-min Rain = 0
KAD1 191659Z 35011G18KT 04/M01 A3032 RMK A01 T00381011  RH  070%=      5-min Rain = 0
KAD1 191700Z 35015KT 04/M01 A3032 RMK A01 T00381014  RH  069%=      5-min Rain = 0
KAD1 191701Z 35013KT 04/M02 A3032 RMK A01 T00381016  RH  068%=      5-min Rain = 0
KAD1 191702Z 00013KT 04/M02 A3032 RMK A01 T00381015  RH  068%=      5-min Rain = 0
KAD1 191703Z 35012KT 04/M01 A3032 RMK A01 T00391014  RH  068%=      5-min Rain = 0
KAD1 191704Z 00011KT 04/M01 A3032 RMK A01 T00391014  RH  068%=      5-min Rain = 0
KAD1 191705Z 36014KT 04/M02 A3032 RMK A01 T00401015  RH  067%=      5-min Rain = 0
KAD1 191706Z 35015KT 04/M02 A3032 RMK A01 T00411016  RH  067%=      5-min Rain = 0
KAD1 191707Z 36012KT 04/M02 A3032 RMK A01 T00411020  RH  065%=      5-min Rain = 0
KAD1 191708Z 36014KT 04/M02 A3032 RMK A01 T00411015  RH  067%=      5-min Rain = 0
KAD1 191709Z 36012KT 04/M02 A3032 RMK A01 T00411018  RH  065%=      5-min Rain = 0
KAD1 191710Z 01014KT 04/M02 A3032 RMK A01 T00411019  RH  065%=      5-min Rain = 0.01
KAD1 191711Z 01013KT 04/M02 A3032 RMK A01 T00421015  RH  066%=      5-min Rain = 0
KAD1 191712Z 36013KT 04/M01 A3032 RMK A01 T00431013  RH  067%=      5-min Rain = 0
KAD1 191713Z 35014KT 04/M02 A3032 RMK A01 T00441015  RH  066%=      5-min Rain = 0
KAD1 191714Z 35014KT 04/M02 A3032 RMK A01 T00441019  RH  064%=      5-min Rain = 0
KAD1 191715Z 36011KT 04/M02 A3032 RMK A01 T00431019  RH  064%=      5-min Rain = 0
KAD1 191716Z 00012KT 04/M01 A3032 RMK A01 T00441014  RH  066%=      5-min Rain = 0
KAD1 191717Z 01012KT 05/M01 A3032 RMK A01 T00451011  RH  067%=      5-min Rain = 0
KAD1 191718Z 01014KT 05/M01 A3032 RMK A01 T00451013  RH  066%=      5-min Rain = 0
KAD1 191719Z 01014KT 05/M02 A3032 RMK A01 T00451015  RH  065%=      5-min Rain = 0
KAD1 191720Z 02012KT 04/M01 A3032 RMK A01 T00441012  RH  067%=      5-min Rain = 0
KAD1 191721Z 01011G16KT 05/M01 A3032 RMK A01 T00471007  RH  068%=      5-min Rain = 0
KAD1 191722Z 01013KT 05/M01 A3032 RMK A01 T00481007  RH  067%=      5-min Rain = 0
KAD1 191723Z 01014KT 05/M01 A3032 RMK A01 T00491010  RH  066%=      5-min Rain = 0
KAD1 191724Z 01015KT 05/M01 A3032 RMK A01 T00481013  RH  065%=      5-min Rain = 0
KAD1 191725Z 00013KT 05/M01 A3032 RMK A01 T00471012  RH  065%=      5-min Rain = 0
KAD1 191726Z 01013KT 05/M01 A3032 RMK A01 T00481010  RH  066%=      5-min Rain = 0
KAD1 191727Z 00013KT 05/M01 A3032 RMK A01 T00481013  RH  065%=      5-min Rain = 0
KAD1 191728Z 00013G19KT 05/M01 A3032 RMK A01 T00481014  RH  064%=      5-min Rain = 0
KAD1 191729Z 35016KT 05/M02 A3032 RMK A01 T00471015  RH  064%=      5-min Rain = 0
KAD1 191730Z 01012KT 05/M02 A3032 RMK A01 T00471017  RH  063%=      5-min Rain = 0
KAD1 191731Z 01015KT 05/M01 A3032 RMK A01 T00481013  RH  065%=      5-min Rain = 0
KAD1 191732Z 01013KT 05/M02 A3032 RMK A01 T00501015  RH  063%=      5-min Rain = 0
KAD1 191733Z 00014KT 05/M02 A3032 RMK A01 T00491017  RH  062%=      5-min Rain = 0
KAD1 191734Z 01014KT 05/M02 A3032 RMK A01 T00491018  RH  062%=      5-min Rain = 0
KAD1 191735Z 36012KT 05/M02 A3032 RMK A01 T00481018  RH  062%=      5-min Rain = 0
KAD1 191736Z 35013KT 05/M02 A3032 RMK A01 T00491015  RH  063%=      5-min Rain = 0
KAD1 191737Z 00011KT 05/M01 A3032 RMK A01 T00501013  RH  064%=      5-min Rain = 0
KAD1 191738Z 00014KT 05/M02 A3032 RMK A01 T00511016  RH  062%=      5-min Rain = 0
KAD1 191739Z 36012KT 05/M02 A3032 RMK A01 T00501017  RH  062%=      5-min Rain = 0
KAD1 191740Z 01015KT 05/M02 A3032 RMK A01 T00511016  RH  062%=      5-min Rain = 0
KAD1 191741Z 01013KT 05/M02 A3032 RMK A01 T00521018  RH  061%=      5-min Rain = 0
KAD1 191742Z 01013KT 05/M02 A3032 RMK A01 T00521019  RH  060%=      5-min Rain = 0
KAD1 191743Z 01013KT 05/M02 A3032 RMK A01 T00511020  RH  060%=      5-min Rain = 0
KAD1 191744Z 00014KT 05/M02 A3032 RMK A01 T00501021  RH  060%=      5-min Rain = 0
KAD1 191745Z 01014KT 05/M02 A3032 RMK A01 T00501021  RH  060%=      5-min Rain = 0
KAD1 191746Z 02012KT 05/M02 A3032 RMK A01 T00491020  RH  061%=      5-min Rain = 0
KAD1 191747Z 00009KT 05/M02 A3032 RMK A01 T00501020  RH  061%=      5-min Rain = 0
KAD1 191748Z 01011KT 05/M02 A3032 RMK A01 T00511016  RH  062%=      5-min Rain = 0
KAD1 191749Z 00009KT 05/M02 A3032 RMK A01 T00521018  RH  061%=      5-min Rain = 0
KAD1 191750Z 02009G14KT 05/M02 A3032 RMK A01 T00531016  RH  061%=      5-min Rain = 0
KAD1 191751Z 01010KT 06/M01 A3032 RMK A01 T00561010  RH  063%=      5-min Rain = 0
KAD1 191752Z 01011KT 06/M01 A3032 RMK A01 T00581010  RH  062%=      5-min Rain = 0
KAD1 191753Z 01013KT 06/M01 A3032 RMK A01 T00581014  RH  060%=      5-min Rain = 0
KAD1 191754Z 36013KT 06/M02 A3032 RMK A01 T00571017  RH  059%=      5-min Rain = 0
KAD1 191755Z 00011KT 06/M02 A3032 RMK A01 T00551020  RH  058%=      5-min Rain = 0
KAD1 191756Z 36010KT 05/M02 A3032 RMK A01 T00541017  RH  060%=      5-min Rain = 0
KAD1 191757Z 36010KT 06/M01 A3032 RMK A01 T00571013  RH  061%=      5-min Rain = 0
KAD1 191758Z 36009KT 06/M02 A3032 RMK A01 T00571016  RH  059%=      5-min Rain = 0
KAD1 191759Z 00008KT 06/M02 A3032 RMK A01 T00571017  RH  059%=      5-min Rain = 0
KAD1 191800Z 35010KT 06/M02 A3032 RMK A01 T00581015  RH  059%=      5-min Rain = 0
KAD1 191801Z 35010KT 06/M02 A3032 RMK A01 T00571023  RH  056%=      5-min Rain = 0
KAD1 191802Z 35011KT 06/M02 A3032 RMK A01 T00571021  RH  058%=      5-min Rain = 0
KAD1 191803Z 01009KT 06/M02 A3032 RMK A01 T00571019  RH  058%=      5-min Rain = 0
KAD1 191804Z 01012KT 06/M02 A3032 RMK A01 T00581017  RH  058%=      5-min Rain = 0
KAD1 191805Z 01011KT 06/M02 A3032 RMK A01 T00581019  RH  058%=      5-min Rain = 0
KAD1 191806Z 00010KT 06/M02 A3032 RMK A01 T00581021  RH  057%=      5-min Rain = 0
KAD1 191807Z 01008KT 06/M03 A3032 RMK A01 T00561026  RH  056%=      5-min Rain = 0
KAD1 191808Z 02010KT 05/M02 A3032 RMK A01 T00541024  RH  057%=      5-min Rain = 0
KAD1 191809Z 00009KT 06/M02 A3032 RMK A01 T00571018  RH  058%=      5-min Rain = 0
KAD1 191810Z 35009KT 06/M02 A3032 RMK A01 T00581019  RH  057%=      5-min Rain = 0
KAD1 191811Z 35009G14KT 06/M02 A3032 RMK A01 T00591017  RH  058%=      5-min Rain = 0
KAD1 191812Z 01011KT 06/M02 A3032 RMK A01 T00601019  RH  057%=      5-min Rain = 0
KAD1 191813Z 01011KT 06/M02 A3031 RMK A01 T00601018  RH  057%=      5-min Rain = 0
KAD1 191814Z 02011KT 06/M02 A3031 RMK A01 T00601022  RH  056%=      5-min Rain = 0
KAD1 191815Z 02011KT 06/M02 A3031 RMK A01 T00591021  RH  057%=      5-min Rain = 0
KAD1 191816Z 02012KT 06/M02 A3031 RMK A01 T00601020  RH  057%=      5-min Rain = 0
KAD1 191817Z 02012KT 06/M02 A3031 RMK A01 T00601021  RH  056%=      5-min Rain = 0
KAD1 191818Z 00010KT 06/M02 A3031 RMK A01 T00611016  RH  058%=      5-min Rain = 0
KAD1 191819Z 00011KT 06/M01 A3031 RMK A01 T00641014  RH  058%=      5-min Rain = 0
KAD1 191820Z 35008KT 07/M02 A3031 RMK A01 T00651017  RH  056%=      5-min Rain = 0
KAD1 191821Z 35010KT 06/M02 A3031 RMK A01 T00631022  RH  054%=      5-min Rain = 0
KAD1 191822Z 01012KT 06/M02 A3031 RMK A01 T00611024  RH  055%=      5-min Rain = 0
KAD1 191823Z 01014KT 06/M02 A3031 RMK A01 T00611021  RH  056%=      5-min Rain = 0
KAD1 191824Z 36013KT 06/M02 A3031 RMK A01 T00611020  RH  056%=      5-min Rain = 0
KAD1 191825Z 36011KT 06/M02 A3031 RMK A01 T00631019  RH  056%=      5-min Rain = 0
KAD1 191826Z 33008KT 06/M03 A3031 RMK A01 T00631025  RH  053%=      5-min Rain = 0
KAD1 191827Z 00009KT 06/M03 A3031 RMK A01 T00621025  RH  054%=      5-min Rain = 0
KAD1 191828Z 02009KT 06/M02 A303 RMK A01 T00631023  RH  054%=      5-min Rain = 0
KAD1 191829Z 34012KT 07/M02 A303 RMK A01 T00661018  RH  055%=      5-min Rain = 0
KAD1 191830Z 35012KT 07/M02 A3031 RMK A01 T00681022  RH  053%=      5-min Rain = 0
KAD1 191831Z 36007KT 07/M03 A3031 RMK A01 T00651028  RH  051%=      5-min Rain = 0
KAD1 191832Z 35009KT 07/M02 A3031 RMK A01 T00651023  RH  053%=      5-min Rain = 0
KAD1 191833Z 34009KT 07/M02 A3031 RMK A01 T00661023  RH  053%=      5-min Rain = 0
KAD1 191834Z 35009KT 07/M03 A3031 RMK A01 T00651026  RH  052%=      5-min Rain = 0
KAD1 191835Z 34009KT 06/M03 A3031 RMK A01 T00641028  RH  052%=      5-min Rain = 0
KAD1 191836Z 33012KT 07/M02 A3031 RMK A01 T00651023  RH  053%=      5-min Rain = 0
KAD1 191837Z 32012KT 07/M03 A3031 RMK A01 T00661026  RH  052%=      5-min Rain = 0
KAD1 191838Z 32010KT 07/M02 A3031 RMK A01 T00661023  RH  053%=      5-min Rain = 0
KAD1 191839Z 32009KT 07/M03 A3031 RMK A01 T00661026  RH  052%=      5-min Rain = 0
KAD1 191840Z 33008KT 07/M03 A303 RMK A01 T00651028  RH  051%=      5-min Rain = 0
KAD1 191841Z 33007KT 06/M03 A303 RMK A01 T00641030  RH  051%=      5-min Rain = 0
KAD1 191842Z 34009KT 06/M03 A303 RMK A01 T00631026  RH  053%=      5-min Rain = 0
KAD1 191843Z 36008KT 07/M02 A303 RMK A01 T00651022  RH  054%=      5-min Rain = 0
KAD1 191844Z 02009G14KT 07/M02 A303 RMK A01 T00661022  RH  053%=      5-min Rain = 0
KAD1 191845Z 01015KT 07/M02 A303 RMK A01 T00681020  RH  053%=      5-min Rain = 0
KAD1 191846Z 36010KT 07/M03 A303 RMK A01 T00671029  RH  050%=      5-min Rain = 0
KAD1 191847Z 33009KT 07/M02 A303 RMK A01 T00671023  RH  053%=      5-min Rain = 0
KAD1 191848Z 34009KT 07/M03 A303 RMK A01 T00691025  RH  051%=      5-min Rain = 0
KAD1 191849Z 02009KT 07/M02 A303 RMK A01 T00681020  RH  053%=      5-min Rain = 0
KAD1 191850Z 02009KT 07/M02 A303 RMK A01 T00691023  RH  052%=      5-min Rain = 0
KAD1 191851Z 01012KT 07/M02 A303 RMK A01 T00671024  RH  052%=      5-min Rain = 0
KAD1 191852Z 02010KT 07/M02 A303 RMK A01 T00661023  RH  053%=      5-min Rain = 0
KAD1 191853Z 02008KT 07/M02 A303 RMK A01 T00671024  RH  052%=      5-min Rain = 0
KAD1 191854Z 00009KT 07/M03 A303 RMK A01 T00671026  RH  051%=      5-min Rain = 0
KAD1 191855Z 35010KT 07/M03 A303 RMK A01 T00661026  RH  052%=      5-min Rain = 0
KAD1 191856Z 36008KT 07/M03 A303 RMK A01 T00651025  RH  053%=      5-min Rain = 0
KAD1 191857Z 35013KT 07/M02 A303 RMK A01 T00671021  RH  053%=      5-min Rain = 0
KAD1 191858Z 36009KT 07/M03 A303 RMK A01 T00671025  RH  052%=      5-min Rain = 0
KAD1 191859Z 36009KT 07/M03 A303 RMK A01 T00681026  RH  051%=      5-min Rain = 0
KAD1 191900Z 34008KT 07/M03 A303 RMK A01 T00681027  RH  051%=      5-min Rain = 0
KAD1 191901Z 35011KT 07/M02 A303 RMK A01 T00681024  RH  052%=      5-min Rain = 0
KAD1 191902Z 35007KT 07/M03 A303 RMK A01 T00691026  RH  051%=      5-min Rain = 0
KAD1 191903Z 34011KT 07/M03 A303 RMK A01 T00691025  RH  051%=      5-min Rain = 0
KAD1 191904Z 35013KT 07/M02 A303 RMK A01 T00701024  RH  051%=      5-min Rain = 0
KAD1 191905Z 35011KT 07/M03 A303 RMK A01 T00711025  RH  050%=      5-min Rain = 0
KAD1 191906Z 35008KT 07/M03 A303 RMK A01 T00701028  RH  050%=      5-min Rain = 0
KAD1 191907Z 34009KT 07/M03 A303 RMK A01 T00691028  RH  050%=      5-min Rain = 0
KAD1 191908Z 35012KT 07/M03 A303 RMK A01 T00691029  RH  050%=      5-min Rain = 0
KAD1 191909Z 36008KT 07/M03 A303 RMK A01 T00691030  RH  049%=      5-min Rain = 0
KAD1 191910Z 36012KT 07/M03 A303 RMK A01 T00701027  RH  050%=      5-min Rain = 0
KAD1 191911Z 36011KT 07/M03 A303 RMK A01 T00701027  RH  050%=      5-min Rain = 0
KAD1 191912Z 01010KT 07/M02 A303 RMK A01 T00711023  RH  051%=      5-min Rain = 0
KAD1 191913Z 00013KT 07/M03 A303 RMK A01 T00721025  RH  050%=      5-min Rain = 0
KAD1 191914Z 01010KT 07/M03 A303 RMK A01 T00711028  RH  049%=      5-min Rain = 0
KAD1 191915Z 02007KT 07/M03 A303 RMK A01 T00701028  RH  050%=      5-min Rain = 0
KAD1 191916Z 02009KT 07/M03 A303 RMK A01 T00711027  RH  050%=      5-min Rain = 0
KAD1 191917Z 01010KT 07/M03 A303 RMK A01 T00711028  RH  049%=      5-min Rain = 0
KAD1 191918Z 35007KT 07/M03 A303 RMK A01 T00711033  RH  047%=      5-min Rain = 0
KAD1 191919Z 35010KT 07/M03 A303 RMK A01 T00711031  RH  048%=      5-min Rain = 0
KAD1 191920Z 33011KT 07/M03 A303 RMK A01 T00731029  RH  049%=      5-min Rain = 0
KAD1 191921Z 33009KT 07/M03 A303 RMK A01 T00721034  RH  047%=      5-min Rain = 0
KAD1 191922Z 32009KT 07/M03 A303 RMK A01 T00711031  RH  048%=      5-min Rain = 0
KAD1 191923Z 32007KT 07/M03 A303 RMK A01 T00721031  RH  048%=      5-min Rain = 0
KAD1 191924Z 32006KT 07/M03 A303 RMK A01 T00721032  RH  048%=      5-min Rain = 0
KAD1 191925Z 33009KT 07/M03 A3029 RMK A01 T00721032  RH  048%=      5-min Rain = 0
KAD1 191926Z 34010KT 07/M03 A3029 RMK A01 T00721030  RH  048%=      5-min Rain = 0
KAD1 191927Z 33011KT 07/M03 A3029 RMK A01 T00731029  RH  048%=      5-min Rain = 0
KAD1 191928Z 33009KT 07/M03 A3029 RMK A01 T00731026  RH  049%=      5-min Rain = 0
KAD1 191929Z 31010KT 08/M02 A3029 RMK A01 T00761022  RH  050%=      5-min Rain = 0
KAD1 191930Z 32007KT 08/M03 A3029 RMK A01 T00751029  RH  048%=      5-min Rain = 0
KAD1 191931Z 34009G14KT 07/M03 A3029 RMK A01 T00731027  RH  049%=      5-min Rain = 0
KAD1 191932Z 34012KT 07/M03 A3029 RMK A01 T00741027  RH  049%=      5-min Rain = 0
KAD1 191933Z 35009KT 07/M03 A3029 RMK A01 T00731032  RH  047%=      5-min Rain = 0
KAD1 191934Z 36011KT 07/M03 A3029 RMK A01 T00721031  RH  048%=      5-min Rain = 0
KAD1 191935Z 34009KT 07/M03 A3029 RMK A01 T00721033  RH  047%=      5-min Rain = 0
KAD1 191936Z 33008KT 07/M03 A3029 RMK A01 T00721031  RH  048%=      5-min Rain = 0
KAD1 191937Z 36011KT 07/M03 A3029 RMK A01 T00731029  RH  048%=      5-min Rain = 0
KAD1 191938Z 35012KT 07/M03 A3029 RMK A01 T00731031  RH  048%=      5-min Rain = 0
KAD1 191939Z 35010KT 07/M03 A3029 RMK A01 T00721031  RH  048%=      5-min Rain = 0
KAD1 191940Z 35007KT 07/M03 A3029 RMK A01 T00711032  RH  048%=      5-min Rain = 0
KAD1 191941Z 00005KT 07/M03 A3028 RMK A01 T00721030  RH  048%=      5-min Rain = 0
KAD1 191942Z 02006KT 07/M03 A3028 RMK A01 T00741028  RH  048%=      5-min Rain = 0
KAD1 191943Z 02006KT 07/M03 A3028 RMK A01 T00741034  RH  046%=      5-min Rain = 0
KAD1 191944Z 36010KT 07/M03 A3028 RMK A01 T00741029  RH  048%=      5-min Rain = 0
KAD1 191945Z 33013KT 08/M03 A3028 RMK A01 T00761030  RH  047%=      5-min Rain = 0
KAD1 191946Z 33011KT 08/M04 A3028 RMK A01 T00751036  RH  045%=      5-min Rain = 0
KAD1 191947Z 35011KT 07/M04 A3028 RMK A01 T00721036  RH  046%=      5-min Rain = 0
KAD1 191948Z 34009G14KT 07/M03 A3028 RMK A01 T00721033  RH  047%=      5-min Rain = 0
KAD1 191949Z 33006KT 07/M04 A3028 RMK A01 T00721036  RH  046%=      5-min Rain = 0
KAD1 191950Z 34008KT 07/M03 A3028 RMK A01 T00711033  RH  047%=      5-min Rain = 0
KAD1 191951Z 33013G18KT 07/M03 A3028 RMK A01 T00741029  RH  048%=      5-min Rain = 0
KAD1 191952Z 32010KT 08/M03 A3028 RMK A01 T00771027  RH  048%=      5-min Rain = 0
KAD1 191953Z 33010KT 08/M03 A3028 RMK A01 T00781028  RH  047%=      5-min Rain = 0
KAD1 191954Z 34011KT 08/M03 A3028 RMK A01 T00771030  RH  047%=      5-min Rain = 0
KAD1 191955Z 33010KT 08/M03 A3028 RMK A01 T00761031  RH  046%=      5-min Rain = 0
KAD1 191956Z 36009KT 08/M03 A3028 RMK A01 T00761031  RH  047%=      5-min Rain = 0
KAD1 191957Z 01009KT 08/M03 A3028 RMK A01 T00761031  RH  047%=      5-min Rain = 0
KAD1 191958Z 01006KT 08/M04 A3027 RMK A01 T00771036  RH  045%=      5-min Rain = 0
KAD1 191959Z 35003KT 08/M04 A3027 RMK A01 T00751037  RH  045%=      5-min Rain = 0
KAD1 192000Z 31004KT 08/M04 A3027 RMK A01 T00751035  RH  046%=      5-min Rain = 0
KAD1 192001Z 31003KT 08/M04 A3027 RMK A01 T00751037  RH  045%=      5-min Rain = 0
KAD1 192002Z 29004KT 07/M04 A3027 RMK A01 T00741036  RH  046%=      5-min Rain = 0
KAD1 192003Z 34006KT 07/M03 A3027 RMK A01 T00741032  RH  047%=      5-min Rain = 0
KAD1 192004Z 34005G10KT 08/M04 A3027 RMK A01 T00751036  RH  045%=      5-min Rain = 0
KAD1 192005Z 34011KT 08/M03 A3027 RMK A01 T00761032  RH  046%=      5-min Rain = 0
KAD1 192006Z 34009KT 08/M03 A3027 RMK A01 T00771034  RH  045%=      5-min Rain = 0
KAD1 192007Z 34008KT 08/M03 A3027 RMK A01 T00771032  RH  046%=      5-min Rain = 0
KAD1 192008Z 33007KT 08/M03 A3027 RMK A01 T00781030  RH  046%=      5-min Rain = 0
KAD1 192009Z 32008KT 08/M03 A3027 RMK A01 T00791031  RH  046%=      5-min Rain = 0
KAD1 192010Z 32006KT 08/M03 A3027 RMK A01 T00791029  RH  046%=      5-min Rain = 0
KAD1 192011Z 33010KT 08/M03 A3027 RMK A01 T00811028  RH  046%=      5-min Rain = 0
KAD1 192012Z 33005KT 08/M04 A3027 RMK A01 T00781039  RH  043%=      5-min Rain = 0
KAD1 192013Z 32004KT 08/M04 A3027 RMK A01 T00751037  RH  045%=      5-min Rain = 0
KAD1 192014Z 30006KT 08/M03 A3027 RMK A01 T00771032  RH  046%=      5-min Rain = 0
KAD1 192015Z 30005KT 08/M04 A3026 RMK A01 T00781036  RH  044%=      5-min Rain = 0
KAD1 192016Z 32004KT 08/M03 A3026 RMK A01 T00781034  RH  045%=      5-min Rain = 0
KAD1 192017Z 32004KT 08/M03 A3026 RMK A01 T00801028  RH  046%=      5-min Rain = 0
KAD1 192018Z 33010KT 08/M03 A3026 RMK A01 T00831027  RH  046%=      5-min Rain = 0
KAD1 192019Z 32009KT 08/M03 A3026 RMK A01 T00831030  RH  045%=      5-min Rain = 0
KAD1 192020Z 32008KT 08/M04 A3026 RMK A01 T00811036  RH  043%=      5-min Rain = 0
KAD1 192021Z 34009KT 08/M04 A3026 RMK A01 T00781036  RH  044%=      5-min Rain = 0
KAD1 192022Z 35008KT 08/M04 A3026 RMK A01 T00771037  RH  044%=      5-min Rain = 0
KAD1 192023Z 36009KT 08/M04 A3026 RMK A01 T00771037  RH  044%=      5-min Rain = 0
KAD1 192024Z 36005KT 08/M04 A3026 RMK A01 T00771036  RH  045%=      5-min Rain = 0
KAD1 192025Z 00005KT 08/M04 A3025 RMK A01 T00761039  RH  044%=      5-min Rain = 0
KAD1 192026Z 02005KT 08/M04 A3025 RMK A01 T00751038  RH  044%=      5-min Rain = 0
KAD1 192027Z 02006KT 08/M04 A3025 RMK A01 T00751039  RH  044%=      5-min Rain = 0
KAD1 192028Z 01006KT 08/M04 A3025 RMK A01 T00751040  RH  044%=      5-min Rain = 0
KAD1 192029Z 01005KT 07/M04 A3025 RMK A01 T00741041  RH  044%=      5-min Rain = 0
KAD1 192030Z 36009KT 08/M04 A3025 RMK A01 T00751037  RH  045%=      5-min Rain = 0
KAD1 192031Z 34009KT 08/M03 A3025 RMK A01 T00791034  RH  045%=      5-min Rain = 0
KAD1 192032Z 32009KT 08/M04 A3025 RMK A01 T00791038  RH  044%=      5-min Rain = 0
KAD1 192033Z 35009KT 08/M03 A3025 RMK A01 T00781034  RH  045%=      5-min Rain = 0
KAD1 192034Z 35011KT 08/M04 A3025 RMK A01 T00801035  RH  044%=      5-min Rain = 0
KAD1 192035Z 35008KT 08/M03 A3025 RMK A01 T00801034  RH  045%=      5-min Rain = 0
KAD1 192036Z 01006KT 08/M04 A3025 RMK A01 T00801037  RH  043%=      5-min Rain = 0
KAD1 192037Z 02006KT 08/M04 A3025 RMK A01 T00781042  RH  042%=      5-min Rain = 0
KAD1 192038Z 03007KT 08/M04 A3025 RMK A01 T00781041  RH  043%=      5-min Rain = 0
KAD1 192039Z 01007KT 08/M04 A3025 RMK A01 T00791038  RH  043%=      5-min Rain = 0
KAD1 192040Z 33009KT 08/M04 A3025 RMK A01 T00801038  RH  043%=      5-min Rain = 0
KAD1 192041Z 32006KT 08/M04 A3025 RMK A01 T00811038  RH  043%=      5-min Rain = 0
KAD1 192042Z 31004KT 08/M04 A3025 RMK A01 T00791039  RH  043%=      5-min Rain = 0
KAD1 192043Z 31006KT 08/M04 A3025 RMK A01 T00791040  RH  043%=      5-min Rain = 0
KAD1 192044Z 32004KT 08/M04 A3025 RMK A01 T00781043  RH  042%=      5-min Rain = 0
KAD1 192045Z 01004KT 08/M04 A3025 RMK A01 T00771039  RH  044%=      5-min Rain = 0
KAD1 192046Z 35006KT 08/M04 A3025 RMK A01 T00791037  RH  044%=      5-min Rain = 0
KAD1 192047Z 34007KT 08/M04 A3025 RMK A01 T00801039  RH  043%=      5-min Rain = 0
KAD1 192048Z 35007KT 08/M04 A3025 RMK A01 T00781039  RH  043%=      5-min Rain = 0
KAD1 192049Z 35006KT 08/M04 A3025 RMK A01 T00781040  RH  043%=      5-min Rain = 0
KAD1 192050Z 35004KT 08/M04 A3024 RMK A01 T00771041  RH  043%=      5-min Rain = 0
KAD1 192051Z 34005KT 08/M04 A3024 RMK A01 T00781038  RH  044%=      5-min Rain = 0
KAD1 192052Z 00006KT 08/M04 A3024 RMK A01 T00801036  RH  044%=      5-min Rain = 0
KAD1 192053Z 35004KT 08/M04 A3024 RMK A01 T00811038  RH  043%=      5-min Rain = 0
KAD1 192054Z 31003KT 08/M03 A3024 RMK A01 T00821034  RH  044%=      5-min Rain = 0
KAD1 192055Z 33006KT 08/M03 A3024 RMK A01 T00841033  RH  044%=      5-min Rain = 0
KAD1 192056Z 34005KT 08/M04 A3024 RMK A01 T00831037  RH  042%=      5-min Rain = 0
KAD1 192057Z 00008KT 08/M04 A3024 RMK A01 T00831036  RH  043%=      5-min Rain = 0
KAD1 192058Z 34006KT 08/M04 A3024 RMK A01 T00821041  RH  042%=      5-min Rain = 0
KAD1 192059Z 33006KT 08/M04 A3024 RMK A01 T00801039  RH  043%=      5-min Rain = 0
KAD1 192100Z 33005KT 08/M04 A3024 RMK A01 T00811036  RH  043%=      5-min Rain = 0
KAD1 192101Z 35008KT 08/M03 A3024 RMK A01 T00831033  RH  044%=      5-min Rain = 0
KAD1 192102Z 33005KT 08/M04 A3024 RMK A01 T00841036  RH  043%=      5-min Rain = 0
KAD1 192103Z 33006KT 08/M03 A3024 RMK A01 T00831033  RH  044%=      5-min Rain = 0
KAD1 192104Z 33008KT 09/M03 A3024 RMK A01 T00851032  RH  043%=      5-min Rain = 0
KAD1 192105Z 31005KT 08/M04 A3024 RMK A01 T00831042  RH  041%=      5-min Rain = 0
KAD1 192106Z 36005KT 08/M04 A3024 RMK A01 T00801041  RH  042%=      5-min Rain = 0
KAD1 192107Z 01004KT 08/M04 A3024 RMK A01 T00791042  RH  042%=      5-min Rain = 0
KAD1 192108Z 35004KT 08/M04 A3024 RMK A01 T00791039  RH  043%=      5-min Rain = 0
KAD1 192109Z 02003KT 08/M04 A3024 RMK A01 T00801041  RH  042%=      5-min Rain = 0
KAD1 192110Z 35004KT 08/M04 A3024 RMK A01 T00811038  RH  043%=      5-min Rain = 0
KAD1 192111Z 35004KT 08/M04 A3024 RMK A01 T00821040  RH  042%=      5-min Rain = 0
KAD1 192112Z 33008KT 08/M04 A3024 RMK A01 T00811039  RH  042%=      5-min Rain = 0
KAD1 192113Z 34008KT 08/M04 A3024 RMK A01 T00821040  RH  042%=      5-min Rain = 0
KAD1 192114Z 33007KT 08/M04 A3024 RMK A01 T00811043  RH  041%=      5-min Rain = 0
KAD1 192115Z 34006KT 08/M04 A3024 RMK A01 T00801040  RH  042%=      5-min Rain = 0
KAD1 192116Z 36005KT 08/M04 A3024 RMK A01 T00801043  RH  042%=      5-min Rain = 0
KAD1 192117Z 36005KT 08/M04 A3024 RMK A01 T00791042  RH  042%=      5-min Rain = 0
KAD1 192118Z 36004KT 08/M04 A3024 RMK A01 T00791044  RH  041%=      5-min Rain = 0
KAD1 192119Z 31003KT 08/M04 A3024 RMK A01 T00791041  RH  042%=      5-min Rain = 0
KAD1 192120Z 29002KT 08/M04 A3024 RMK A01 T00811041  RH  042%=      5-min Rain = 0
KAD1 192121Z 32002KT 08/M04 A3024 RMK A01 T00821040  RH  042%=      5-min Rain = 0
KAD1 192122Z 35003KT 08/M04 A3024 RMK A01 T00831040  RH  041%=      5-min Rain = 0
KAD1 192123Z 34002KT 08/M04 A3024 RMK A01 T00831043  RH  041%=      5-min Rain = 0
KAD1 192124Z 03001KT 08/M05 A3024 RMK A01 T00821045  RH  040%=      5-min Rain = 0
KAD1 192125Z 29001KT 08/M04 A3024 RMK A01 T00821043  RH  041%=      5-min Rain = 0
KAD1 192126Z 29002KT 08/M04 A3024 RMK A01 T00831044  RH  040%=      5-min Rain = 0
KAD1 192127Z 23001KT 08/M05 A3024 RMK A01 T00831047  RH  040%=      5-min Rain = 0
KAD1 192128Z 21001KT 08/M05 A3024 RMK A01 T00831046  RH  040%=      5-min Rain = 0
KAD1 192129Z 19002KT 08/M05 A3024 RMK A01 T00841047  RH  039%=      5-min Rain = 0
KAD1 192130Z 15002KT 08/M05 A3024 RMK A01 T00841048  RH  039%=      5-min Rain = 0
KAD1 192131Z 14001KT 09/M04 A3024 RMK A01 T00851044  RH  040%=      5-min Rain = 0
KAD1 192132Z 16003KT 09/M04 A3024 RMK A01 T00871041  RH  040%=      5-min Rain = 0
KAD1 192133Z 16003KT 09/M04 A3024 RMK A01 T00881044  RH  039%=      5-min Rain = 0
KAD1 192134Z 14002KT 09/M04 A3024 RMK A01 T00871043  RH  039%=      5-min Rain = 0
KAD1 192135Z 13002KT 09/M04 A3024 RMK A01 T00861044  RH  039%=      5-min Rain = 0
KAD1 192136Z 21001KT 09/M04 A3024 RMK A01 T00851044  RH  040%=      5-min Rain = 0
KAD1 192137Z 36001KT 09/M04 A3024 RMK A01 T00861040  RH  041%=      5-min Rain = 0
KAD1 192138Z 02003KT 09/M04 A3024 RMK A01 T00871040  RH  041%=      5-min Rain = 0
KAD1 192139Z 02003KT 09/M04 A3024 RMK A01 T00871039  RH  041%=      5-min Rain = 0
KAD1 192140Z 01002KT 09/M04 A3024 RMK A01 T00871039  RH  041%=      5-min Rain = 0
KAD1 192141Z 01003KT 09/M04 A3024 RMK A01 T00871038  RH  041%=      5-min Rain = 0
KAD1 192142Z 01005KT 09/M04 A3024 RMK A01 T00871036  RH  042%=      5-min Rain = 0
KAD1 192143Z 36005KT 09/M04 A3024 RMK A01 T00861041  RH  040%=      5-min Rain = 0
KAD1 192144Z 34003KT 08/M04 A3024 RMK A01 T00841043  RH  040%=      5-min Rain = 0
KAD1 192145Z 01000KT 08/M04 A3024 RMK A01 T00821041  RH  041%=      5-min Rain = 0
KAD1 192146Z 08000KT 08/M04 A3024 RMK A01 T00831039  RH  042%=      5-min Rain = 0
KAD1 192147Z 03001KT 09/M04 A3024 RMK A01 T00851039  RH  041%=      5-min Rain = 0
KAD1 192148Z 03002KT 09/M04 A3024 RMK A01 T00861042  RH  040%=      5-min Rain = 0
KAD1 192149Z 01004KT 09/M04 A3024 RMK A01 T00861042  RH  040%=      5-min Rain = 0
KAD1 192150Z 02003KT 09/M04 A3024 RMK A01 T00851043  RH  040%=      5-min Rain = 0
KAD1 192151Z 03002KT 08/M05 A3024 RMK A01 T00841045  RH  040%=      5-min Rain = 0
KAD1 192152Z 04003KT 08/M04 A3024 RMK A01 T00831044  RH  040%=      5-min Rain = 0
KAD1 192153Z 05003KT 08/M05 A3024 RMK A01 T00831045  RH  040%=      5-min Rain = 0
KAD1 192154Z 04002KT 08/M04 A3024 RMK A01 T00821043  RH  041%=      5-min Rain = 0
KAD1 192155Z 00000KT 08/M04 A3024 RMK A01 T00831044  RH  041%=      5-min Rain = 0
KAD1 192156Z 16001KT 08/M04 A3024 RMK A01 T00831043  RH  040%=      5-min Rain = 0
KAD1 192157Z 15002KT 08/M04 A3024 RMK A01 T00841043  RH  040%=      5-min Rain = 0
KAD1 192158Z 09002KT 09/M04 A3024 RMK A01 T00851042  RH  040%=      5-min Rain = 0
KAD1 192159Z 11002KT 09/M04 A3024 RMK A01 T00861040  RH  041%=      5-min Rain = 0
KAD1 192200Z 13002KT 09/M04 A3024 RMK A01 T00861043  RH  040%=      5-min Rain = 0
KAD1 192201Z 13002KT 09/M04 A3024 RMK A01 T00861043  RH  040%=      5-min Rain = 0
KAD1 192202Z 12002KT 09/M04 A3024 RMK A01 T00861040  RH  041%=      5-min Rain = 0
KAD1 192203Z 13004KT 09/M04 A3024 RMK A01 T00871035  RH  042%=      5-min Rain = 0
KAD1 192204Z 14004KT 09/M04 A3024 RMK A01 T00871036  RH  042%=      5-min Rain = 0
KAD1 192205Z 12004KT 09/M04 A3024 RMK A01 T00861037  RH  042%=      5-min Rain = 0
KAD1 192206Z 13004KT 09/M04 A3024 RMK A01 T00851038  RH  042%=      5-min Rain = 0
KAD1 192207Z 14005KT 08/M04 A3024 RMK A01 T00841037  RH  042%=      5-min Rain = 0
KAD1 192208Z 14005KT 09/M03 A3024 RMK A01 T00851032  RH  044%=      5-min Rain = 0
KAD1 192209Z 15003KT 09/M04 A3024 RMK A01 T00851036  RH  042%=      5-min Rain = 0
KAD1 192210Z 12004KT 08/M04 A3024 RMK A01 T00841037  RH  042%=      5-min Rain = 0
KAD1 192211Z 11004KT 09/M04 A3024 RMK A01 T00851036  RH  042%=      5-min Rain = 0
KAD1 192212Z 12003KT 09/M04 A3024 RMK A01 T00851035  RH  042%=      5-min Rain = 0
KAD1 192213Z 10004KT 09/M04 A3024 RMK A01 T00861035  RH  042%=      5-min Rain = 0
KAD1 192214Z 07004KT 09/M04 A3024 RMK A01 T00861035  RH  042%=      5-min Rain = 0
KAD1 192215Z 04004KT 09/M04 A3024 RMK A01 T00881035  RH  042%=      5-min Rain = 0
KAD1 192216Z 03004KT 09/M04 A3024 RMK A01 T00891038  RH  041%=      5-min Rain = 0
KAD1 192217Z 07004KT 09/M04 A3024 RMK A01 T00881041  RH  040%=      5-min Rain = 0
KAD1 192218Z 06002KT 09/M04 A3024 RMK A01 T00881039  RH  041%=      5-min Rain = 0
KAD1 192219Z 10001KT 09/M04 A3024 RMK A01 T00871043  RH  040%=      5-min Rain = 0
KAD1 192220Z 11003KT 09/M04 A3024 RMK A01 T00861042  RH  040%=      5-min Rain = 0
KAD1 192221Z 11002KT 09/M04 A3024 RMK A01 T00851043  RH  040%=      5-min Rain = 0
KAD1 192222Z 09002KT 08/M05 A3024 RMK A01 T00831045  RH  040%=      5-min Rain = 0
KAD1 192223Z 09002KT 08/M04 A3024 RMK A01 T00831042  RH  041%=      5-min Rain = 0
KAD1 192224Z 11003KT 08/M04 A3024 RMK A01 T00841042  RH  041%=      5-min Rain = 0
KAD1 192225Z 10002KT 08/M04 A3024 RMK A01 T00831044  RH  040%=      5-min Rain = 0
KAD1 192226Z 12001KT 08/M04 A3024 RMK A01 T00831042  RH  041%=      5-min Rain = 0
KAD1 192227Z 12001KT 08/M04 A3024 RMK A01 T00831041  RH  041%=      5-min Rain = 0
KAD1 192228Z 15002KT 08/M04 A3024 RMK A01 T00841041  RH  041%=      5-min Rain = 0
KAD1 192229Z 15002KT 09/M04 A3024 RMK A01 T00851041  RH  041%=      5-min Rain = 0
KAD1 192230Z 13002KT 09/M04 A3024 RMK A01 T00861043  RH  040%=      5-min Rain = 0
KAD1 192231Z 14002KT 09/M04 A3024 RMK A01 T00861044  RH  039%=      5-min Rain = 0
KAD1 192232Z 13001KT 09/M05 A3024 RMK A01 T00861047  RH  039%=      5-min Rain = 0
KAD1 192233Z 15001KT 09/M05 A3024 RMK A01 T00851047  RH  039%=      5-min Rain = 0
KAD1 192234Z 13002KT 09/M04 A3024 RMK A01 T00871042  RH  040%=      5-min Rain = 0
KAD1 192235Z 13003KT 09/M04 A3024 RMK A01 T00881040  RH  040%=      5-min Rain = 0
KAD1 192236Z 09003KT 09/M05 A3024 RMK A01 T00881046  RH  038%=      5-min Rain = 0
KAD1 192237Z 09002KT 09/M05 A3024 RMK A01 T00861049  RH  038%=      5-min Rain = 0
KAD1 192238Z 07002KT 09/M05 A3024 RMK A01 T00851048  RH  039%=      5-min Rain = 0
KAD1 192239Z 02003KT 09/M05 A3024 RMK A01 T00851048  RH  039%=      5-min Rain = 0
KAD1 192240Z 02002KT 08/M05 A3024 RMK A01 T00841049  RH  039%=      5-min Rain = 0
KAD1 192241Z 03002KT 09/M05 A3024 RMK A01 T00851046  RH  039%=      5-min Rain = 0
KAD1 192242Z 08001KT 09/M04 A3024 RMK A01 T00861044  RH  040%=      5-min Rain = 0
KAD1 192243Z 10001KT 09/M04 A3024 RMK A01 T00871044  RH  039%=      5-min Rain = 0
KAD1 192244Z 10001KT 09/M04 A3024 RMK A01 T00881042  RH  040%=      5-min Rain = 0
KAD1 192245Z 14001KT 09/M05 A3024 RMK A01 T00871047  RH  038%=      5-min Rain = 0
KAD1 192246Z 13001KT 09/M05 A3024 RMK A01 T00861047  RH  038%=      5-min Rain = 0
KAD1 192247Z 12001KT 09/M04 A3024 RMK A01 T00861044  RH  040%=      5-min Rain = 0
KAD1 192248Z 15002KT 09/M04 A3024 RMK A01 T00871043  RH  040%=      5-min Rain = 0
KAD1 192249Z 12002KT 09/M04 A3024 RMK A01 T00871043  RH  040%=      5-min Rain = 0
KAD1 192250Z 11001KT 09/M04 A3024 RMK A01 T00871044  RH  039%=      5-min Rain = 0
KAD1 192251Z 12001KT 09/M04 A3024 RMK A01 T00871044  RH  039%=      5-min Rain = 0
KAD1 192252Z 15002KT 09/M04 A3024 RMK A01 T00871043  RH  040%=      5-min Rain = 0
KAD1 192253Z 12002KT 09/M04 A3024 RMK A01 T00871041  RH  040%=      5-min Rain = 0
KAD1 192254Z 14003KT 09/M04 A3025 RMK A01 T00881042  RH  040%=      5-min Rain = 0
KAD1 192255Z 16003KT 09/M05 A3025 RMK A01 T00871045  RH  039%=      5-min Rain = 0
KAD1 192256Z 19004KT 09/M05 A3025 RMK A01 T00871047  RH  038%=      5-min Rain = 0
KAD1 192257Z 18004KT 09/M04 A3025 RMK A01 T00881043  RH  039%=      5-min Rain = 0
KAD1 192258Z 16006KT 09/M04 A3025 RMK A01 T00881038  RH  041%=      5-min Rain = 0
KAD1 192259Z 16006KT 09/M04 A3025 RMK A01 T00861039  RH  041%=      5-min Rain = 0
KAD1 192300Z 16005KT 09/M04 A3025 RMK A01 T00861039  RH  041%=      5-min Rain = 0
KAD1 192301Z 16005KT 08/M04 A3025 RMK A01 T00841038  RH  042%=      5-min Rain = 0
KAD1 192302Z 16005KT 08/M04 A3025 RMK A01 T00841035  RH  043%=      5-min Rain = 0
KAD1 192303Z 13006KT 08/M03 A3025 RMK A01 T00841033  RH  043%=      5-min Rain = 0
KAD1 192304Z 12005KT 08/M03 A3025 RMK A01 T00841031  RH  044%=      5-min Rain = 0
KAD1 192305Z 11004KT 08/M03 A3025 RMK A01 T00831032  RH  044%=      5-min Rain = 0
KAD1 192306Z 12004KT 08/M04 A3025 RMK A01 T00821036  RH  043%=      5-min Rain = 0
KAD1 192307Z 13004KT 08/M03 A3025 RMK A01 T00821032  RH  044%=      5-min Rain = 0
KAD1 192308Z 14004KT 08/M03 A3025 RMK A01 T00821026  RH  047%=      5-min Rain = 0
KAD1 192309Z 15004KT 08/M03 A3025 RMK A01 T00821031  RH  045%=      5-min Rain = 0
KAD1 192310Z 14003KT 08/M03 A3025 RMK A01 T00821032  RH  044%=      5-min Rain = 0
KAD1 192311Z 13003KT 08/M03 A3025 RMK A01 T00821032  RH  044%=      5-min Rain = 0
KAD1 192312Z 13003KT 08/M04 A3025 RMK A01 T00821038  RH  043%=      5-min Rain = 0
KAD1 192313Z 14003KT 08/M04 A3025 RMK A01 T00821039  RH  042%=      5-min Rain = 0
KAD1 192314Z 14002KT 08/M04 A3025 RMK A01 T00821037  RH  043%=      5-min Rain = 0
KAD1 192315Z 11003KT 08/M04 A3025 RMK A01 T00821036  RH  043%=      5-min Rain = 0
KAD1 192316Z 11003KT 08/M03 A3025 RMK A01 T00821034  RH  044%=      5-min Rain = 0
KAD1 192317Z 12003KT 08/M04 A3025 RMK A01 T00821036  RH  043%=      5-min Rain = 0
KAD1 192318Z 12003KT 08/M04 A3025 RMK A01 T00821039  RH  042%=      5-min Rain = 0
KAD1 192319Z 12003KT 08/M04 A3025 RMK A01 T00821036  RH  043%=      5-min Rain = 0
KAD1 192320Z 12003KT 08/M03 A3025 RMK A01 T00811029  RH  046%=      5-min Rain = 0
KAD1 192321Z 12004KT 08/M03 A3025 RMK A01 T00811026  RH  047%=      5-min Rain = 0
KAD1 192322Z 11004KT 08/M03 A3025 RMK A01 T00811027  RH  046%=      5-min Rain = 0
KAD1 192323Z 11004KT 08/M02 A3025 RMK A01 T00801023  RH  048%=      5-min Rain = 0
KAD1 192324Z 12004KT 08/M02 A3025 RMK A01 T00801020  RH  049%=      5-min Rain = 0
KAD1 192325Z 12004KT 08/M03 A3025 RMK A01 T00791027  RH  047%=      5-min Rain = 0
KAD1 192326Z 12004KT 08/M02 A3025 RMK A01 T00791024  RH  048%=      5-min Rain = 0
KAD1 192327Z 11004KT 08/M02 A3024 RMK A01 T00781021  RH  049%=      5-min Rain = 0
KAD1 192328Z 12005KT 08/M02 A3024 RMK A01 T00781021  RH  049%=      5-min Rain = 0
KAD1 192329Z 11004KT 08/M03 A3024 RMK A01 T00771034  RH  045%=      5-min Rain = 0
KAD1 192330Z 11004KT 08/M03 A3024 RMK A01 T00771025  RH  048%=      5-min Rain = 0
KAD1 192331Z 11004KT 08/M02 A3024 RMK A01 T00771024  RH  049%=      5-min Rain = 0
KAD1 192332Z 10005KT 08/M02 A3024 RMK A01 T00761024  RH  049%=      5-min Rain = 0
KAD1 192333Z 11005KT 08/M02 A3024 RMK A01 T00761021  RH  050%=      5-min Rain = 0
KAD1 192334Z 12004KT 08/M02 A3024 RMK A01 T00751023  RH  050%=      5-min Rain = 0
KAD1 192335Z 12005KT 07/M02 A3024 RMK A01 T00741021  RH  051%=      5-min Rain = 0
KAD1 192336Z 12005KT 07/M02 A3024 RMK A01 T00731018  RH  053%=      5-min Rain = 0
KAD1 192337Z 12005KT 07/M01 A3024 RMK A01 T00721012  RH  055%=      5-min Rain = 0
KAD1 192338Z 12006KT 07/M01 A3024 RMK A01 T00711013  RH  055%=      5-min Rain = 0
KAD1 192339Z 11005KT 07/M02 A3024 RMK A01 T00701016  RH  054%=      5-min Rain = 0
KAD1 192340Z 11006KT 07/M02 A3024 RMK A01 T00701015  RH  055%=      5-min Rain = 0
KAD1 192341Z 12006KT 07/M01 A3024 RMK A01 T00691013  RH  056%=      5-min Rain = 0
KAD1 192342Z 11006KT 07/M01 A3024 RMK A01 T00671012  RH  057%=      5-min Rain = 0
KAD1 192343Z 11006KT 07/M01 A3024 RMK A01 T00661011  RH  058%=      5-min Rain = 0
KAD1 192344Z 11006KT 07/M01 A3024 RMK A01 T00661013  RH  057%=      5-min Rain = 0
KAD1 192345Z 12006KT 07/M01 A3024 RMK A01 T00651012  RH  058%=      5-min Rain = 0
KAD1 192346Z 12006KT 06/M01 A3024 RMK A01 T00641010  RH  059%=      5-min Rain = 0
KAD1 192347Z 12006KT 06/M01 A3024 RMK A01 T00631010  RH  060%=      5-min Rain = 0
KAD1 192348Z 12006KT 06/M01 A3024 RMK A01 T00621010  RH  060%=      5-min Rain = 0
KAD1 192349Z 12006KT 06/M01 A3024 RMK A01 T00611010  RH  061%=      5-min Rain = 0
KAD1 192350Z 12006KT 06/M01 A3024 RMK A01 T00591010  RH  061%=      5-min Rain = 0
KAD1 192351Z 12006KT 06/M01 A3024 RMK A01 T00591009  RH  062%=      5-min Rain = 0
KAD1 192352Z 12006KT 06/M01 A3024 RMK A01 T00571009  RH  062%=      5-min Rain = 0
KAD1 192353Z 13006KT 06/M01 A3024 RMK A01 T00561010  RH  062%=      5-min Rain = 0
KAD1 192354Z 13006KT 06/M01 A3024 RMK A01 T00561011  RH  062%=      5-min Rain = 0
KAD1 192355Z 13007KT 06/M01 A3024 RMK A01 T00551008  RH  064%=      5-min Rain = 0
KAD1 192356Z 13007KT 05/M01 A3024 RMK A01 T00541008  RH  064%=      5-min Rain = 0
KAD1 192357Z 13007KT 05/M01 A3024 RMK A01 T00531011  RH  064%=      5-min Rain = 0
KAD1 192358Z 13007KT 05/M01 A3024 RMK A01 T00521013  RH  063%=      5-min Rain = 0
KAD1 192359Z 12007KT 05/M02 A3024 RMK A01 T00511015  RH  062%=      5-min Rain = 0
KAD1 200000Z 12007KT 05/M02 A3025 RMK A01 T00511015  RH  062%=      5-min Rain = 0
KAD1 200001Z 12007KT 05/M02 A3024 RMK A01 T00501015  RH  063%=      5-min Rain = 0
KAD1 200002Z 12008KT 05/M01 A3024 RMK A01 T00491014  RH  064%=      5-min Rain = 0
KAD1 200003Z 12007KT 05/M01 A3024 RMK A01 T00481014  RH  065%=      5-min Rain = 0
KAD1 200004Z 12007KT 05/M01 A3024 RMK A01 T00461013  RH  065%=      5-min Rain = 0
KAD1 200005Z 12008KT 05/M01 A3024 RMK A01 T00451013  RH  066%=      5-min Rain = 0
KAD1 200006Z 12008KT 04/M01 A3024 RMK A01 T00441013  RH  067%=      5-min Rain = 0
KAD1 200007Z 12008KT 04/M01 A3024 RMK A01 T00431012  RH  068%=      5-min Rain = 0
KAD1 200008Z 12008KT 04/M01 A3024 RMK A01 T00421012  RH  068%=      5-min Rain = 0
KAD1 200009Z 12008KT 04/M01 A3024 RMK A01 T00411013  RH  068%=      5-min Rain = 0
KAD1 200010Z 12008KT 04/M01 A3024 RMK A01 T00401013  RH  068%=      5-min Rain = 0
KAD1 200011Z 12008KT 04/M01 A3024 RMK A01 T00401014  RH  068%=      5-min Rain = 0
KAD1 200012Z 13007KT 04/M01 A3024 RMK A01 T00391014  RH  069%=      5-min Rain = 0
KAD1 200013Z 13006KT 04/M01 A3024 RMK A01 T00371013  RH  070%=      5-min Rain = 0
KAD1 200014Z 13006KT 04/M01 A3024 RMK A01 T00351012  RH  071%=      5-min Rain = 0
KAD1 200015Z 13006KT 03/M01 A3024 RMK A01 T00341012  RH  072%=      5-min Rain = 0
KAD1 200016Z 13007KT 03/M01 A3024 RMK A01 T00341013  RH  071%=      5-min Rain = 0
KAD1 200017Z 12007KT 03/M01 A3024 RMK A01 T00341013  RH  071%=      5-min Rain = 0
KAD1 200018Z 12007KT 04/M01 A3024 RMK A01 T00351013  RH  071%=      5-min Rain = 0
KAD1 200019Z 12007KT 03/M01 A3024 RMK A01 T00341014  RH  070%=      5-min Rain = 0
KAD1 200020Z 12007KT 03/M02 A3024 RMK A01 T00341016  RH  070%=      5-min Rain = 0
KAD1 200021Z 12007KT 03/M02 A3024 RMK A01 T00341016  RH  070%=      5-min Rain = 0
KAD1 200022Z 11007KT 03/M02 A3024 RMK A01 T00341016  RH  069%=      5-min Rain = 0
KAD1 200023Z 11007KT 03/M02 A3024 RMK A01 T00341017  RH  069%=      5-min Rain = 0
KAD1 200024Z 10007KT 03/M02 A3024 RMK A01 T00341017  RH  069%=      5-min Rain = 0
KAD1 200025Z 11007KT 03/M02 A3024 RMK A01 T00341018  RH  069%=      5-min Rain = 0
KAD1 200026Z 12007KT 03/M02 A3024 RMK A01 T00331017  RH  070%=      5-min Rain = 0
KAD1 200027Z 13007KT 03/M02 A3024 RMK A01 T00331016  RH  070%=      5-min Rain = 0
KAD1 200028Z 13008KT 03/M02 A3024 RMK A01 T00311017  RH  071%=      5-min Rain = 0
KAD1 200029Z 13008KT 03/M02 A3024 RMK A01 T00291019  RH  071%=      5-min Rain = 0
KAD1 200030Z 13009KT 03/M02 A3024 RMK A01 T00271020  RH  071%=      5-min Rain = 0
KAD1 200031Z 13009KT 03/M02 A3024 RMK A01 T00261020  RH  072%=      5-min Rain = 0
KAD1 200032Z 13009KT 03/M02 A3024 RMK A01 T00271019  RH  072%=      5-min Rain = 0
KAD1 200033Z 13010KT 03/M02 A3023 RMK A01 T00291019  RH  071%=      5-min Rain = 0
KAD1 200034Z 12010KT 03/M02 A3023 RMK A01 T00311019  RH  070%=      5-min Rain = 0
KAD1 200035Z 12010KT 03/M02 A3023 RMK A01 T00321020  RH  068%=      5-min Rain = 0
KAD1 200036Z 12010KT 03/M02 A3023 RMK A01 T00331021  RH  067%=      5-min Rain = 0
KAD1 200037Z 12010KT 03/M02 A3023 RMK A01 T00341021  RH  067%=      5-min Rain = 0
KAD1 200038Z 13010KT 03/M02 A3023 RMK A01 T00341022  RH  067%=      5-min Rain = 0
KAD1 200039Z 13010KT 03/M02 A3023 RMK A01 T00341021  RH  067%=      5-min Rain = 0
KAD1 200040Z 12010KT 03/M02 A3023 RMK A01 T00341021  RH  067%=      5-min Rain = 0
KAD1 200041Z 12010KT 03/M02 A3022 RMK A01 T00331021  RH  068%=      5-min Rain = 0
KAD1 200042Z 12010KT 03/M02 A3022 RMK A01 T00321022  RH  068%=      5-min Rain = 0
KAD1 200043Z 12009KT 03/M02 A3022 RMK A01 T00321022  RH  068%=      5-min Rain = 0
KAD1 200044Z 12009KT 03/M02 A3023 RMK A01 T00321022  RH  068%=      5-min Rain = 0
KAD1 200045Z 13009KT 03/M02 A3023 RMK A01 T00311022  RH  068%=      5-min Rain = 0
KAD1 200046Z 13010KT 03/M02 A3022 RMK A01 T00311022  RH  068%=      5-min Rain = 0
KAD1 200047Z 13010KT 03/M02 A3022 RMK A01 T00301022  RH  068%=      5-min Rain = 0
KAD1 200048Z 13010KT 03/M02 A3022 RMK A01 T00301022  RH  069%=      5-min Rain = 0
KAD1 200049Z 13010KT 03/M02 A3022 RMK A01 T00301023  RH  068%=      5-min Rain = 0
KAD1 200050Z 13010KT 03/M02 A3022 RMK A01 T00301024  RH  067%=      5-min Rain = 0
KAD1 200051Z 13010KT 03/M02 A3022 RMK A01 T00311024  RH  067%=      5-min Rain = 0
KAD1 200052Z 13010KT 03/M02 A3022 RMK A01 T00311024  RH  067%=      5-min Rain = 0
KAD1 200053Z 13010KT 03/M03 A3022 RMK A01 T00311025  RH  067%=      5-min Rain = 0
KAD1 200054Z 13010KT 03/M03 A3022 RMK A01 T00311025  RH  067%=      5-min Rain = 0
KAD1 200055Z 13010KT 03/M03 A3022 RMK A01 T00311025  RH  067%=      5-min Rain = 0
KAD1 200056Z 13010KT 03/M03 A3022 RMK A01 T00311025  RH  067%=      5-min Rain = 0
KAD1 200057Z 13011KT 03/M03 A3022 RMK A01 T00311025  RH  067%=      5-min Rain = 0
KAD1 200058Z 13011KT 03/M03 A3022 RMK A01 T00301025  RH  067%=      5-min Rain = 0
KAD1 200059Z 13011KT 03/M03 A3021 RMK A01 T00301025  RH  067%=      5-min Rain = 0
KAD1 200100Z 13011KT 03/M03 A3021 RMK A01 T00301026  RH  067%=      5-min Rain = 0
KAD1 200101Z 13011KT 03/M03 A3021 RMK A01 T00301026  RH  067%=      5-min Rain = 0
KAD1 200102Z 13010KT 03/M03 A3021 RMK A01 T00291027  RH  067%=      5-min Rain = 0
KAD1 200103Z 13010KT 03/M03 A3021 RMK A01 T00301026  RH  067%=      5-min Rain = 0
KAD1 200104Z 12010KT 03/M03 A3021 RMK A01 T00301026  RH  067%=      5-min Rain = 0
KAD1 200105Z 12009KT 03/M03 A3021 RMK A01 T00301026  RH  067%=      5-min Rain = 0
KAD1 200106Z 12009KT 03/M03 A3021 RMK A01 T00301026  RH  067%=      5-min Rain = 0
KAD1 200107Z 13010KT 03/M03 A3021 RMK A01 T00301026  RH  067%=      5-min Rain = 0
KAD1 200108Z 13010KT 03/M03 A3021 RMK A01 T00291025  RH  067%=      5-min Rain = 0
KAD1 200109Z 13010KT 03/M03 A3021 RMK A01 T00281025  RH  068%=      5-min Rain = 0
KAD1 200110Z 13010KT 03/M03 A3021 RMK A01 T00281025  RH  068%=      5-min Rain = 0
KAD1 200111Z 13010KT 03/M03 A3021 RMK A01 T00271026  RH  068%=      5-min Rain = 0
KAD1 200112Z 13010KT 03/M03 A3022 RMK A01 T00271026  RH  068%=      5-min Rain = 0
KAD1 200113Z 13009KT 03/M03 A3022 RMK A01 T00271027  RH  068%=      5-min Rain = 0
KAD1 200114Z 13009KT 03/M03 A3022 RMK A01 T00271027  RH  068%=      5-min Rain = 0
KAD1 200115Z 13009KT 03/M03 A3022 RMK A01 T00271026  RH  068%=      5-min Rain = 0
KAD1 200116Z 13009KT 03/M03 A3022 RMK A01 T00271026  RH  068%=      5-min Rain = 0
KAD1 200117Z 13009KT 03/M03 A3022 RMK A01 T00271026  RH  068%=      5-min Rain = 0
KAD1 200118Z 13009KT 03/M03 A3022 RMK A01 T00271026  RH  068%=      5-min Rain = 0
KAD1 200119Z 13009KT 03/M03 A3022 RMK A01 T00261026  RH  068%=      5-min Rain = 0
KAD1 200120Z 14009KT 03/M03 A3022 RMK A01 T00271026  RH  068%=      5-min Rain = 0
KAD1 200121Z 14009KT 03/M03 A3023 RMK A01 T00261026  RH  068%=      5-min Rain = 0
KAD1 200122Z 14009KT 03/M03 A3023 RMK A01 T00251026  RH  069%=      5-min Rain = 0
KAD1 200123Z 14009KT 03/M03 A3023 RMK A01 T00251026  RH  069%=      5-min Rain = 0
KAD1 200124Z 14009KT 03/M03 A3023 RMK A01 T00251025  RH  069%=      5-min Rain = 0
KAD1 200125Z 14009KT 03/M03 A3023 RMK A01 T00251026  RH  069%=      5-min Rain = 0
KAD1 200126Z 14009KT 03/M03 A3023 RMK A01 T00251026  RH  069%=      5-min Rain = 0
KAD1 200127Z 14010KT 03/M03 A3023 RMK A01 T00251026  RH  069%=      5-min Rain = 0
KAD1 200128Z 14010KT 02/M03 A3023 RMK A01 T00231028  RH  069%=      5-min Rain = 0
KAD1 200129Z 15011KT 02/M03 A3023 RMK A01 T00221028  RH  069%=      5-min Rain = 0
KAD1 200130Z 15011KT 02/M03 A3023 RMK A01 T00221028  RH  069%=      5-min Rain = 0
KAD1 200131Z 15011KT 02/M03 A3023 RMK A01 T00221028  RH  069%=      5-min Rain = 0
KAD1 200132Z 14011KT 02/M03 A3023 RMK A01 T00221029  RH  069%=      5-min Rain = 0
KAD1 200133Z 14010KT 02/M03 A3024 RMK A01 T00221029  RH  069%=      5-min Rain = 0
KAD1 200134Z 14009KT 02/M03 A3024 RMK A01 T00231029  RH  069%=      5-min Rain = 0
KAD1 200135Z 14009KT 02/M03 A3024 RMK A01 T00221028  RH  069%=      5-min Rain = 0
KAD1 200136Z 14009KT 02/M03 A3024 RMK A01 T00221028  RH  069%=      5-min Rain = 0
KAD1 200137Z 14008KT 02/M03 A3025 RMK A01 T00221029  RH  069%=      5-min Rain = 0
KAD1 200138Z 14009KT 02/M03 A3024 RMK A01 T00221030  RH  069%=      5-min Rain = 0
KAD1 200139Z 14009KT 02/M03 A3024 RMK A01 T00211030  RH  069%=      5-min Rain = 0
KAD1 200140Z 15010KT 02/M03 A3024 RMK A01 T00201031  RH  069%=      5-min Rain = 0
KAD1 200141Z 15010KT 02/M03 A3024 RMK A01 T00191031  RH  069%=      5-min Rain = 0
KAD1 200142Z 15010KT 02/M03 A3024 RMK A01 T00181031  RH  070%=      5-min Rain = 0
KAD1 200143Z 15010KT 02/M03 A3024 RMK A01 T00171030  RH  071%=      5-min Rain = 0
KAD1 200144Z 15010KT 02/M03 A3024 RMK A01 T00151031  RH  071%=      5-min Rain = 0
KAD1 200145Z 15010KT 02/M03 A3024 RMK A01 T00151030  RH  072%=      5-min Rain = 0
KAD1 200146Z 15010KT 01/M03 A3024 RMK A01 T00141030  RH  073%=      5-min Rain = 0
KAD1 200147Z 15010KT 01/M03 A3025 RMK A01 T00141030  RH  073%=      5-min Rain = 0
KAD1 200148Z 15010KT 01/M03 A3024 RMK A01 T00141030  RH  073%=      5-min Rain = 0
KAD1 200149Z 15009KT 01/M03 A3024 RMK A01 T00141030  RH  072%=      5-min Rain = 0
KAD1 200150Z 15009KT 02/M03 A3025 RMK A01 T00151029  RH  072%=      5-min Rain = 0
KAD1 200151Z 15008KT 01/M03 A3024 RMK A01 T00141029  RH  073%=      5-min Rain = 0
KAD1 200152Z 15009KT 01/M03 A3024 RMK A01 T00141029  RH  073%=      5-min Rain = 0
KAD1 200153Z 15010KT 01/M03 A3023 RMK A01 T00131029  RH  073%=      5-min Rain = 0
KAD1 200154Z 15010KT 01/M03 A3023 RMK A01 T00121029  RH  074%=      5-min Rain = 0
KAD1 200155Z 15009KT 01/M03 A3024 RMK A01 T00111029  RH  074%=      5-min Rain = 0
KAD1 200156Z 15009KT 01/M03 A3024 RMK A01 T00111029  RH  075%=      5-min Rain = 0
KAD1 200157Z 15009KT 01/M03 A3024 RMK A01 T00111028  RH  075%=      5-min Rain = 0
KAD1 200158Z 15010KT 01/M03 A3023 RMK A01 T00111028  RH  075%=      5-min Rain = 0
KAD1 200159Z 15010KT 01/M03 A3023 RMK A01 T00121027  RH  075%=      5-min Rain = 0
KAD1 200200Z 14010KT 01/M03 A3023 RMK A01 T00121026  RH  076%=      5-min Rain = 0
KAD1 200201Z 14010KT 01/M03 A3023 RMK A01 T00131025  RH  076%=      5-min Rain = 0
KAD1 200202Z 14009KT 01/M02 A3023 RMK A01 T00141024  RH  076%=      5-min Rain = 0
KAD1 200203Z 15009KT 02/M02 A3023 RMK A01 T00151024  RH  075%=      5-min Rain = 0
KAD1 200204Z 15009KT 02/M02 A3023 RMK A01 T00161024  RH  075%=      5-min Rain = 0
KAD1 200205Z 15009KT 02/M02 A3023 RMK A01 T00161024  RH  075%=      5-min Rain = 0
KAD1 200206Z 15009KT 02/M02 A3024 RMK A01 T00161024  RH  075%=      5-min Rain = 0
KAD1 200207Z 16009KT 02/M03 A3024 RMK A01 T00161025  RH  074%=      5-min Rain = 0
KAD1 200208Z 16010KT 02/M03 A3024 RMK A01 T00161025  RH  074%=      5-min Rain = 0
KAD1 200209Z 16011KT 02/M03 A3025 RMK A01 T00161025  RH  074%=      5-min Rain = 0
KAD1 200210Z 16011KT 02/M03 A3024 RMK A01 T00161025  RH  074%=      5-min Rain = 0
KAD1 200211Z 15012KT 02/M03 A3024 RMK A01 T00161025  RH  074%=      5-min Rain = 0
KAD1 200212Z 16012KT 02/M03 A3024 RMK A01 T00161025  RH  074%=      5-min Rain = 0
KAD1 200213Z 16012KT 02/M03 A3024 RMK A01 T00161025  RH  074%=      5-min Rain = 0
KAD1 200214Z 16012KT 02/M03 A3023 RMK A01 T00151025  RH  074%=      5-min Rain = 0
KAD1 200215Z 15012KT 02/M03 A3022 RMK A01 T00151025  RH  075%=      5-min Rain = 0
KAD1 200216Z 15012KT 01/M03 A3022 RMK A01 T00131025  RH  076%=      5-min Rain = 0
KAD1 200217Z 15012KT 01/M02 A3021 RMK A01 T00131024  RH  076%=      5-min Rain = 0
KAD1 200218Z 15012KT 01/M02 A3022 RMK A01 T00121024  RH  077%=      5-min Rain = 0
KAD1 200219Z 15012KT 01/M02 A3022 RMK A01 T00121024  RH  077%=      5-min Rain = 0
KAD1 200220Z 16011KT 01/M02 A3022 RMK A01 T00121024  RH  077%=      5-min Rain = 0
KAD1 200221Z 16010KT 01/M02 A3022 RMK A01 T00121024  RH  077%=      5-min Rain = 0
KAD1 200222Z 16010KT 01/M02 A3023 RMK A01 T00121024  RH  077%=      5-min Rain = 0
KAD1 200223Z 15010KT 01/M02 A3022 RMK A01 T00121024  RH  077%=      5-min Rain = 0
KAD1 200224Z 15011KT 01/M02 A3022 RMK A01 T00121024  RH  077%=      5-min Rain = 0
KAD1 200225Z 15011KT 01/M02 A3022 RMK A01 T00131023  RH  077%=      5-min Rain = 0
KAD1 200226Z 15012KT 01/M02 A3022 RMK A01 T00121023  RH  077%=      5-min Rain = 0
KAD1 200227Z 15012KT 01/M02 A3022 RMK A01 T00131022  RH  078%=      5-min Rain = 0
KAD1 200228Z 15012KT 01/M02 A3022 RMK A01 T00121022  RH  078%=      5-min Rain = 0
KAD1 200229Z 16011KT 01/M02 A3022 RMK A01 T00121023  RH  078%=      5-min Rain = 0
KAD1 200230Z 16011KT 01/M02 A3023 RMK A01 T00121023  RH  077%=      5-min Rain = 0
KAD1 200231Z 16011KT 01/M02 A3022 RMK A01 T00121023  RH  077%=      5-min Rain = 0
KAD1 200232Z 16011KT 01/M02 A3022 RMK A01 T00131023  RH  077%=      5-min Rain = 0
KAD1 200233Z 16011KT 01/M02 A3022 RMK A01 T00121023  RH  077%=      5-min Rain = 0
KAD1 200234Z 16011KT 01/M02 A3023 RMK A01 T00121024  RH  077%=      5-min Rain = 0
KAD1 200235Z 16011KT 01/M02 A3023 RMK A01 T00121023  RH  077%=      5-min Rain = 0
KAD1 200236Z 16011KT 01/M02 A3023 RMK A01 T00111024  RH  078%=      5-min Rain = 0
KAD1 200237Z 16011KT 01/M02 A3023 RMK A01 T00111023  RH  078%=      5-min Rain = 0
KAD1 200238Z 16011KT 01/M02 A3023 RMK A01 T00111023  RH  078%=      5-min Rain = 0
KAD1 200239Z 16011KT 01/M02 A3023 RMK A01 T00101024  RH  078%=      5-min Rain = 0
KAD1 200240Z 16011KT 01/M02 A3023 RMK A01 T00101024  RH  078%=      5-min Rain = 0
KAD1 200241Z 16011KT 01/M02 A3023 RMK A01 T00091024  RH  079%=      5-min Rain = 0
KAD1 200242Z 16011KT 01/M02 A3023 RMK A01 T00081024  RH  079%=      5-min Rain = 0
KAD1 200243Z 16011KT 01/M02 A3022 RMK A01 T00081024  RH  079%=      5-min Rain = 0
KAD1 200244Z 16011KT 01/M02 A3022 RMK A01 T00071024  RH  080%=      5-min Rain = 0
KAD1 200245Z 16011KT 01/M02 A3022 RMK A01 T00071024  RH  080%=      5-min Rain = 0
KAD1 200246Z 16011KT 01/M02 A3022 RMK A01 T00071024  RH  080%=      5-min Rain = 0
KAD1 200247Z 16011KT 01/M02 A3022 RMK A01 T00071024  RH  080%=      5-min Rain = 0
KAD1 200248Z 16010KT 01/M02 A3022 RMK A01 T00071024  RH  080%=      5-min Rain = 0
KAD1 200249Z 16011KT 01/M02 A3022 RMK A01 T00061024  RH  080%=      5-min Rain = 0
KAD1 200250Z 16011KT 01/M02 A3023 RMK A01 T00061024  RH  080%=      5-min Rain = 0
KAD1 200251Z 16011KT 01/M02 A3023 RMK A01 T00061024  RH  080%=      5-min Rain = 0
KAD1 200252Z 16010KT 01/M02 A3023 RMK A01 T00051024  RH  081%=      5-min Rain = 0
KAD1 200253Z 16011KT 01/M02 A3023 RMK A01 T00051024  RH  081%=      5-min Rain = 0
KAD1 200254Z 16011KT 00/M02 A3023 RMK A01 T00041024  RH  081%=      5-min Rain = 0
KAD1 200255Z 16010KT 00/M02 A3023 RMK A01 T00041024  RH  081%=      5-min Rain = 0
KAD1 200256Z 16010KT 00/M02 A3023 RMK A01 T00041024  RH  081%=      5-min Rain = 0
KAD1 200257Z 16011KT 01/M02 A3023 RMK A01 T00051024  RH  081%=      5-min Rain = 0
KAD1 200258Z 16011KT 01/M02 A3023 RMK A01 T00051024  RH  081%=      5-min Rain = 0
KAD1 200259Z 16011KT 01/M03 A3023 RMK A01 T00051025  RH  081%=      5-min Rain = 0
KAD1 200300Z 16011KT 01/M02 A3023 RMK A01 T00061024  RH  080%=      5-min Rain = 0
KAD1 200301Z 16011KT 01/M02 A3022 RMK A01 T00061024  RH  080%=      5-min Rain = 0
KAD1 200302Z 16012KT 01/M03 A3022 RMK A01 T00051025  RH  080%=      5-min Rain = 0
KAD1 200303Z 16011KT 00/M03 A3022 RMK A01 T00041025  RH  081%=      5-min Rain = 0
KAD1 200304Z 16011KT 00/M03 A3023 RMK A01 T00031025  RH  081%=      5-min Rain = 0
KAD1 200305Z 17011KT 00/M03 A3023 RMK A01 T00031025  RH  081%=      5-min Rain = 0
KAD1 200306Z 16011KT 00/M03 A3023 RMK A01 T00021025  RH  082%=      5-min Rain = 0
KAD1 200307Z 17011KT 00/M03 A3023 RMK A01 T00021025  RH  082%=      5-min Rain = 0
KAD1 200308Z 17011KT 00/M03 A3023 RMK A01 T00021025  RH  082%=      5-min Rain = 0
KAD1 200309Z 17011KT 00/M03 A3023 RMK A01 T00021025  RH  082%=      5-min Rain = 0
KAD1 200310Z 16011KT 00/M03 A3023 RMK A01 T00021026  RH  082%=      5-min Rain = 0
KAD1 200311Z 16011KT 00/M03 A3023 RMK A01 T00021026  RH  081%=      5-min Rain = 0
KAD1 200312Z 16011KT 00/M03 A3023 RMK A01 T00011027  RH  081%=      5-min Rain = 0
KAD1 200313Z 17011KT 00/M03 A3023 RMK A01 T00011027  RH  081%=      5-min Rain = 0
KAD1 200314Z 16011KT 00/M03 A3023 RMK A01 T00011027  RH  081%=      5-min Rain = 0
KAD1 200315Z 17012KT 00/M03 A3023 RMK A01 T00021027  RH  081%=      5-min Rain = 0
KAD1 200316Z 17011KT 00/M03 A3022 RMK A01 T00021028  RH  081%=      5-min Rain = 0
KAD1 200317Z 17011KT 00/M03 A3022 RMK A01 T00021028  RH  081%=      5-min Rain = 0
KAD1 200318Z 17012KT 00/M03 A3022 RMK A01 T00021028  RH  081%=      5-min Rain = 0
KAD1 200319Z 17011KT 00/M03 A3022 RMK A01 T00021028  RH  080%=      5-min Rain = 0
KAD1 200320Z 17011KT 00/M03 A3022 RMK A01 T00021028  RH  080%=      5-min Rain = 0
KAD1 200321Z 17012KT 00/M03 A3022 RMK A01 T00011028  RH  081%=      5-min Rain = 0
KAD1 200322Z 17011KT 00/M03 A3022 RMK A01 T00011028  RH  081%=      5-min Rain = 0
KAD1 200323Z 17012KT 00/M03 A3022 RMK A01 T00011028  RH  081%=      5-min Rain = 0
KAD1 200324Z 17012KT 00/M03 A3022 RMK A01 T00011028  RH  081%=      5-min Rain = 0
KAD1 200325Z 17012KT 00/M03 A3022 RMK A01 T00011028  RH  081%=      5-min Rain = 0
KAD1 200326Z 17012KT 00/03 A3022 RMK A01 T00000-28  RH  081%=      5-min Rain = 0
KAD1 200327Z 17012KT 00/03 A3022 RMK A01 T00-00-28  RH  081%=      5-min Rain = 0
KAD1 200328Z 17012KT 00/03 A3022 RMK A01 T00-00-28  RH  082%=      5-min Rain = 0
KAD1 200329Z 17012KT M00/M03 A3022 RMK A01 T10011028  RH  082%=      5-min Rain = 0
KAD1 200330Z 17012KT M00/M03 A3022 RMK A01 T10011028  RH  082%=      5-min Rain = 0
KAD1 200331Z 17013KT 00/03 A3022 RMK A01 T00-00-28  RH  081%=      5-min Rain = 0
KAD1 200332Z 17013KT 00/03 A3022 RMK A01 T00000-28  RH  081%=      5-min Rain = 0
KAD1 200333Z 17013KT 00/03 A3022 RMK A01 T00000-28  RH  081%=      5-min Rain = 0
KAD1 200334Z 17013KT 00/03 A3022 RMK A01 T00000-28  RH  081%=      5-min Rain = 0
KAD1 200335Z 17013KT 00/03 A3022 RMK A01 T00000-28  RH  081%=      5-min Rain = 0
KAD1 200336Z 17014KT M00/M03 A3021 RMK A01 T10011028  RH  081%=      5-min Rain = 0
KAD1 200337Z 17013KT M00/M03 A3021 RMK A01 T10011028  RH  082%=      5-min Rain = 0
KAD1 200338Z 17013KT M00/M03 A3021 RMK A01 T10011028  RH  082%=      5-min Rain = 0
KAD1 200339Z 17013KT M00/M03 A3021 RMK A01 T10011028  RH  082%=      5-min Rain = 0
KAD1 200340Z 17013KT M00/M03 A3022 RMK A01 T10011028  RH  082%=      5-min Rain = 0
KAD1 200341Z 17013KT M00/M03 A3022 RMK A01 T10011028  RH  082%=      5-min Rain = 0
KAD1 200342Z 17013KT M00/M03 A3022 RMK A01 T10011028  RH  082%=      5-min Rain = 0
KAD1 200343Z 17013KT M00/M03 A3022 RMK A01 T10011028  RH  082%=      5-min Rain = 0
KAD1 200344Z 17013KT M00/M03 A3022 RMK A01 T10011028  RH  082%=      5-min Rain = 0
KAD1 200345Z 17013KT M00/M03 A3022 RMK A01 T10011028  RH  082%=      5-min Rain = 0
KAD1 200346Z 17013KT 00/03 A3021 RMK A01 T00-00-28  RH  082%=      5-min Rain = 0
KAD1 200347Z 17014KT 00/03 A3021 RMK A01 T00-00-28  RH  081%=      5-min Rain = 0
KAD1 200348Z 17014KT 00/M03 A3022 RMK A01 T00011028  RH  081%=      5-min Rain = 0
KAD1 200349Z 17014KT 00/M03 A3021 RMK A01 T00011028  RH  081%=      5-min Rain = 0
KAD1 200350Z 17014KT 00/M03 A3022 RMK A01 T00011028  RH  081%=      5-min Rain = 0
KAD1 200351Z 17014KT 00/M03 A3022 RMK A01 T00011029  RH  081%=      5-min Rain = 0
KAD1 200352Z 17013KT 00/M03 A3021 RMK A01 T00011028  RH  081%=      5-min Rain = 0
KAD1 200353Z 17013KT 00/M03 A3022 RMK A01 T00011028  RH  081%=      5-min Rain = 0
KAD1 200354Z 17013KT 00/M03 A3022 RMK A01 T00011028  RH  081%=      5-min Rain = 0
KAD1 200355Z 17013KT 00/M03 A3022 RMK A01 T00011028  RH  081%=      5-min Rain = 0
KAD1 200356Z 17013KT 00/M03 A3022 RMK A01 T00011028  RH  081%=      5-min Rain = 0
KAD1 200357Z 17014KT 00/M03 A3021 RMK A01 T00011028  RH  081%=      5-min Rain = 0
KAD1 200358Z 17013KT 00/M03 A3022 RMK A01 T00011028  RH  081%=      5-min Rain = 0
KAD1 200359Z 17013KT 00/M03 A3022 RMK A01 T00011028  RH  081%=      5-min Rain = 0
KAD1 200400Z 17013KT 00/M03 A3022 RMK A01 T00011028  RH  081%=      5-min Rain = 0
KAD1 200401Z 17013KT 00/M03 A3022 RMK A01 T00011028  RH  081%=      5-min Rain = 0
KAD1 200402Z 17013KT 00/M03 A3021 RMK A01 T00011028  RH  081%=      5-min Rain = 0
KAD1 200403Z 17013KT 00/M03 A3022 RMK A01 T00011028  RH  081%=      5-min Rain = 0
KAD1 200404Z 17013KT 00/M03 A3022 RMK A01 T00011028  RH  081%=      5-min Rain = 0
KAD1 200405Z 17013KT 00/M03 A3022 RMK A01 T00011028  RH  081%=      5-min Rain = 0
KAD1 200406Z 17013KT 00/03 A3022 RMK A01 T00000-28  RH  081%=      5-min Rain = 0
KAD1 200407Z 17013KT 00/03 A3022 RMK A01 T00-00-28  RH  082%=      5-min Rain = 0
KAD1 200408Z 18013KT 00/03 A3022 RMK A01 T00-00-28  RH  082%=      5-min Rain = 0
KAD1 200409Z 18013KT 00/03 A3022 RMK A01 T00-00-28  RH  082%=      5-min Rain = 0
KAD1 200410Z 18012KT 00/03 A3022 RMK A01 T00-00-27  RH  082%=      5-min Rain = 0
KAD1 200411Z 18012KT 00/03 A3022 RMK A01 T00-00-27  RH  082%=      5-min Rain = 0
KAD1 200412Z 18012KT 00/03 A3022 RMK A01 T00-00-27  RH  082%=      5-min Rain = 0
KAD1 200413Z 18012KT 00/03 A3022 RMK A01 T00-00-27  RH  082%=      5-min Rain = 0
KAD1 200414Z 18012KT 00/03 A3022 RMK A01 T00-00-27  RH  082%=      5-min Rain = 0
KAD1 200415Z 18013KT M00/M03 A3022 RMK A01 T10011027  RH  083%=      5-min Rain = 0
KAD1 200416Z 18013KT M00/M03 A3022 RMK A01 T10011027  RH  083%=      5-min Rain = 0
KAD1 200417Z 18013KT M00/M03 A3022 RMK A01 T10021027  RH  083%=      5-min Rain = 0
KAD1 200418Z 18013KT M00/M03 A3022 RMK A01 T10011026  RH  083%=      5-min Rain = 0
KAD1 200419Z 18013KT M00/M03 A3022 RMK A01 T10011026  RH  083%=      5-min Rain = 0
KAD1 200420Z 18012KT M00/M03 A3022 RMK A01 T10011026  RH  083%=      5-min Rain = 0
KAD1 200421Z 18013KT M00/M03 A3022 RMK A01 T10011026  RH  083%=      5-min Rain = 0
KAD1 200422Z 17013KT M00/M03 A3022 RMK A01 T10021027  RH  083%=      5-min Rain = 0
KAD1 200423Z 18014KT M00/M03 A3021 RMK A01 T10021027  RH  084%=      5-min Rain = 0
KAD1 200424Z 18014KT M00/M03 A3021 RMK A01 T10021026  RH  084%=      5-min Rain = 0
KAD1 200425Z 18014KT M00/M03 A3021 RMK A01 T10021026  RH  084%=      5-min Rain = 0
KAD1 200426Z 17014KT M00/M03 A3021 RMK A01 T10021026  RH  084%=      5-min Rain = 0
KAD1 200427Z 17013KT M00/M03 A3021 RMK A01 T10021026  RH  084%=      5-min Rain = 0
KAD1 200428Z 18014KT M00/M03 A3021 RMK A01 T10021026  RH  084%=      5-min Rain = 0
KAD1 200429Z 17014KT M00/M03 A3021 RMK A01 T10021026  RH  084%=      5-min Rain = 0
KAD1 200430Z 18013KT M00/M03 A3021 RMK A01 T10021026  RH  084%=      5-min Rain = 0
KAD1 200431Z 18013KT M00/M03 A3021 RMK A01 T10021026  RH  084%=      5-min Rain = 0
KAD1 200432Z 17013KT M00/M03 A3021 RMK A01 T10021026  RH  084%=      5-min Rain = 0
KAD1 200433Z 18013KT M00/M03 A3021 RMK A01 T10031026  RH  084%=      5-min Rain = 0
KAD1 200434Z 17013KT M00/M03 A3021 RMK A01 T10031026  RH  084%=      5-min Rain = 0
KAD1 200435Z 17013KT M00/M03 A3021 RMK A01 T10021026  RH  084%=      5-min Rain = 0
KAD1 200436Z 18013KT M00/M03 A3021 RMK A01 T10021025  RH  084%=      5-min Rain = 0
KAD1 200437Z 18013KT M00/M03 A3022 RMK A01 T10021025  RH  084%=      5-min Rain = 0
KAD1 200438Z 18013KT M00/M03 A3022 RMK A01 T10011025  RH  084%=      5-min Rain = 0
KAD1 200439Z 18013KT M00/M03 A3022 RMK A01 T10021026  RH  084%=      5-min Rain = 0
KAD1 200440Z 18013KT M00/M03 A3022 RMK A01 T10011026  RH  084%=      5-min Rain = 0
KAD1 200441Z 18013KT M00/M03 A3022 RMK A01 T10011026  RH  084%=      5-min Rain = 0
KAD1 200442Z 17013KT M00/M03 A3022 RMK A01 T10011025  RH  084%=      5-min Rain = 0
KAD1 200443Z 18013KT M00/M03 A3022 RMK A01 T10011026  RH  084%=      5-min Rain = 0
KAD1 200444Z 18012KT M00/M03 A3022 RMK A01 T10011026  RH  084%=      5-min Rain = 0
KAD1 200445Z 18013KT M00/M03 A3022 RMK A01 T10011026  RH  084%=      5-min Rain = 0
KAD1 200446Z 18013KT M00/M03 A3022 RMK A01 T10011026  RH  084%=      5-min Rain = 0
KAD1 200447Z 18014KT M00/M03 A3022 RMK A01 T10011025  RH  084%=      5-min Rain = 0
KAD1 200448Z 18015KT M00/M03 A3022 RMK A01 T10011026  RH  083%=      5-min Rain = 0
KAD1 200449Z 18015KT M00/M03 A3022 RMK A01 T10011026  RH  083%=      5-min Rain = 0
KAD1 200450Z 18014KT M00/M03 A3022 RMK A01 T10011026  RH  083%=      5-min Rain = 0
KAD1 200451Z 18015KT M00/M03 A3022 RMK A01 T10011026  RH  083%=      5-min Rain = 0
KAD1 200452Z 18015KT M00/M03 A3022 RMK A01 T10021027  RH  083%=      5-min Rain = 0
KAD1 200453Z 18014KT M00/M03 A3022 RMK A01 T10021027  RH  083%=      5-min Rain = 0
KAD1 200454Z 18014KT M00/M03 A3022 RMK A01 T10021027  RH  083%=      5-min Rain = 0
KAD1 200455Z 18014KT M00/M03 A3022 RMK A01 T10011026  RH  083%=      5-min Rain = 0
KAD1 200456Z 18013KT M00/M03 A3021 RMK A01 T10011026  RH  083%=      5-min Rain = 0
KAD1 200457Z 17014KT M00/M03 A3021 RMK A01 T10011026  RH  083%=      5-min Rain = 0
KAD1 200458Z 18015KT M00/M03 A3021 RMK A01 T10021027  RH  083%=      5-min Rain = 0
KAD1 200459Z 18015KT M00/M03 A302 RMK A01 T10031027  RH  084%=      5-min Rain = 0
KAD1 200500Z 18015KT M00/M03 A302 RMK A01 T10031027  RH  084%=      5-min Rain = 0
KAD1 200501Z 18015KT M00/M03 A302 RMK A01 T10021026  RH  084%=      5-min Rain = 0
KAD1 200502Z 18015KT M00/M03 A302 RMK A01 T10021026  RH  084%=      5-min Rain = 0
KAD1 200503Z 18015KT M00/M03 A302 RMK A01 T10021027  RH  084%=      5-min Rain = 0
KAD1 200504Z 18016KT M00/M03 A3021 RMK A01 T10021026  RH  084%=      5-min Rain = 0
KAD1 200505Z 18015KT M00/M03 A3021 RMK A01 T10021027  RH  084%=      5-min Rain = 0
KAD1 200506Z 18016KT M00/M03 A3021 RMK A01 T10021027  RH  083%=      5-min Rain = 0
KAD1 200507Z 18015KT M00/M03 A3021 RMK A01 T10021026  RH  084%=      5-min Rain = 0
KAD1 200508Z 18016KT M00/M03 A3021 RMK A01 T10021027  RH  083%=      5-min Rain = 0
KAD1 200509Z 18016KT M00/M03 A3021 RMK A01 T10021027  RH  083%=      5-min Rain = 0
KAD1 200510Z 18016KT M00/M03 A3021 RMK A01 T10021027  RH  083%=      5-min Rain = 0
KAD1 200511Z 18015KT M00/M03 A3021 RMK A01 T10021027  RH  083%=      5-min Rain = 0
KAD1 200512Z 18015KT M00/M03 A3021 RMK A01 T10021027  RH  083%=      5-min Rain = 0
KAD1 200513Z 18015KT M00/M03 A3021 RMK A01 T10021027  RH  083%=      5-min Rain = 0
KAD1 200514Z 18015KT M00/M03 A3021 RMK A01 T10021027  RH  083%=      5-min Rain = 0
KAD1 200515Z 18015KT M00/M03 A3021 RMK A01 T10021027  RH  083%=      5-min Rain = 0
KAD1 200516Z 18016KT M00/M03 A3021 RMK A01 T10021027  RH  083%=      5-min Rain = 0
KAD1 200517Z 18016KT M00/M03 A3021 RMK A01 T10021026  RH  083%=      5-min Rain = 0
KAD1 200518Z 18015KT M00/M03 A3021 RMK A01 T10011026  RH  083%=      5-min Rain = 0
KAD1 200519Z 18015KT M00/M03 A3021 RMK A01 T10021027  RH  083%=      5-min Rain = 0
KAD1 200520Z 18016KT M00/M03 A3021 RMK A01 T10021026  RH  083%=      5-min Rain = 0
KAD1 200521Z 18015KT M00/M03 A3021 RMK A01 T10021026  RH  083%=      5-min Rain = 0
KAD1 200522Z 18015KT M00/M03 A3021 RMK A01 T10021026  RH  084%=      5-min Rain = 0
KAD1 200523Z 18016KT M00/M03 A3021 RMK A01 T10031027  RH  084%=      5-min Rain = 0
KAD1 200524Z 18015KT M00/M03 A3021 RMK A01 T10031026  RH  085%=      5-min Rain = 0
KAD1 200525Z 18016KT M00/M03 A3021 RMK A01 T10031026  RH  085%=      5-min Rain = 0
KAD1 200526Z 18016KT M00/M03 A3021 RMK A01 T10031026  RH  085%=      5-min Rain = 0
KAD1 200527Z 18016KT M00/M03 A3021 RMK A01 T10031026  RH  085%=      5-min Rain = 0
KAD1 200528Z 18015KT M00/M03 A3021 RMK A01 T10041026  RH  085%=      5-min Rain = 0
KAD1 200529Z 18015KT M00/M03 A3022 RMK A01 T10041026  RH  085%=      5-min Rain = 0
KAD1 200530Z 18015KT M00/M03 A3022 RMK A01 T10041026  RH  085%=      5-min Rain = 0
KAD1 200531Z 18015KT M00/M03 A3022 RMK A01 T10041026  RH  086%=      5-min Rain = 0
KAD1 200532Z 18015KT M01/M03 A3022 RMK A01 T10051026  RH  086%=      5-min Rain = 0
KAD1 200533Z 18016KT M01/M03 A3022 RMK A01 T10051027  RH  086%=      5-min Rain = 0
KAD1 200534Z 19016KT M01/M03 A3022 RMK A01 T10061027  RH  086%=      5-min Rain = 0
KAD1 200535Z 18016KT M01/M03 A3022 RMK A01 T10051026  RH  086%=      5-min Rain = 0
KAD1 200536Z 18016KT M01/M03 A3022 RMK A01 T10061027  RH  086%=      5-min Rain = 0
KAD1 200537Z 18016KT M01/M03 A3021 RMK A01 T10061027  RH  086%=      5-min Rain = 0
KAD1 200538Z 18016KT M01/M03 A3021 RMK A01 T10061027  RH  086%=      5-min Rain = 0
KAD1 200539Z 18016KT M01/M03 A3021 RMK A01 T10061027  RH  086%=      5-min Rain = 0
KAD1 200540Z 18016KT M01/M03 A3021 RMK A01 T10071027  RH  086%=      5-min Rain = 0
KAD1 200541Z 18016KT M01/M03 A3021 RMK A01 T10071027  RH  086%=      5-min Rain = 0
KAD1 200542Z 18017KT M01/M03 A3021 RMK A01 T10071027  RH  086%=      5-min Rain = 0
KAD1 200543Z 18017KT M01/M03 A3021 RMK A01 T10071027  RH  086%=      5-min Rain = 0
KAD1 200544Z 18016KT M01/M03 A3021 RMK A01 T10071027  RH  086%=      5-min Rain = 0
KAD1 200545Z 18016KT M01/M03 A3021 RMK A01 T10071027  RH  086%=      5-min Rain = 0
KAD1 200546Z 18016KT M01/M03 A3021 RMK A01 T10071028  RH  086%=      5-min Rain = 0
KAD1 200547Z 18017KT M01/M03 A3021 RMK A01 T10071028  RH  086%=      5-min Rain = 0
KAD1 200548Z 18017KT M01/M03 A3021 RMK A01 T10081028  RH  086%=      5-min Rain = 0
KAD1 200549Z 18016KT M01/M03 A3021 RMK A01 T10071028  RH  086%=      5-min Rain = 0
KAD1 200550Z 19017KT M01/M03 A3021 RMK A01 T10071028  RH  086%=      5-min Rain = 0
KAD1 200551Z 18017KT M01/M03 A3021 RMK A01 T10071028  RH  086%=      5-min Rain = 0
KAD1 200552Z 18017KT M01/M03 A3021 RMK A01 T10071028  RH  086%=      5-min Rain = 0
KAD1 200553Z 18016KT M01/M03 A3021 RMK A01 T10061028  RH  085%=      5-min Rain = 0
KAD1 200554Z 18017KT M01/M03 A3021 RMK A01 T10061028  RH  085%=      5-min Rain = 0
KAD1 200555Z 19017KT M01/M03 A3021 RMK A01 T10061028  RH  085%=      5-min Rain = 0
KAD1 200556Z 19018KT M01/M03 A3021 RMK A01 T10051028  RH  085%=      5-min Rain = 0
KAD1 200557Z 18017KT M01/M03 A3021 RMK A01 T10051028  RH  084%=      5-min Rain = 0
KAD1 200558Z 18017KT M00/M03 A3021 RMK A01 T10041028  RH  084%=      5-min Rain = 0
KAD1 200559Z 19017KT M00/M03 A3021 RMK A01 T10041028  RH  084%=      5-min Rain = 0

Page generated in 0.1301 seconds.